Wetterdaten: Donnerstag, 21.01.2021
Datum Zeit Temp. Aussen Temp. o. S. Temp +5cm Feuchte Auss Luftdruck Regen Sonnenschein Regendauer Solar Windben Empfang
21.01.2021 00:00 10,1 C 9,4 C 6,2 C 78 % 992,9 hPa 0,0 l/m 0 min 0 min 0 W/m 1,6 km/h (1 Bft) 97,87 %
21.01.2021 00:02 10,1 C 9,4 C 6,2 C 78 % 993,0 hPa 0,0 l/m 0 min 0 min 0 W/m 0,0 km/h (0 Bft) 12,50 %
21.01.2021 00:04 10,2 C 9,4 C 6,2 C 78 % 992,9 hPa 0,0 l/m 0 min 0 min 0 W/m 0,0 km/h (0 Bft) 81,25 %
21.01.2021 00:08 10,2 C 9,4 C 6,2 C 78 % 992,8 hPa 0,0 l/m 0 min 0 min 0 W/m 3,2 km/h (1 Bft) 97,85 %
21.01.2021 00:10 10,3 C 9,4 C 6,2 C 78 % 992,8 hPa 0,0 l/m 0 min 0 min 0 W/m 1,6 km/h (1 Bft) 95,74 %
21.01.2021 00:12 10,2 C 9,4 C 6,2 C 78 % 992,8 hPa 0,0 l/m 0 min 0 min 0 W/m 1,6 km/h (1 Bft) 93,62 %
21.01.2021 00:14 10,3 C 9,4 C 6,2 C 78 % 992,8 hPa 0,0 l/m 0 min 0 min 0 W/m 1,6 km/h (1 Bft) 97,87 %
21.01.2021 00:16 10,3 C 9,4 C 6,2 C 78 % 992,8 hPa 0,0 l/m 0 min 0 min 0 W/m 0,0 km/h (0 Bft) 98,11 %
21.01.2021 00:18 10,3 C 9,4 C 6,2 C 78 % 992,7 hPa 0,0 l/m 0 min 0 min 0 W/m 0,0 km/h (0 Bft) 97,87 %
21.01.2021 00:20 10,3 C 9,4 C 6,2 C 78 % 992,7 hPa 0,0 l/m 0 min 0 min 0 W/m 0,0 km/h (0 Bft) 97,87 %
21.01.2021 00:22 10,3 C 9,4 C 6,2 C 78 % 992,6 hPa 0,0 l/m 0 min 0 min 0 W/m 3,2 km/h (1 Bft) 97,87 %
21.01.2021 00:24 10,3 C 9,4 C 6,2 C 78 % 992,7 hPa 0,0 l/m 0 min 0 min 0 W/m 3,2 km/h (1 Bft) 97,87 %
21.01.2021 00:26 10,3 C 9,4 C 6,2 C 78 % 992,6 hPa 0,0 l/m 0 min 0 min 0 W/m 22,5 km/h (4 Bft) 97,87 %
21.01.2021 00:28 10,3 C 10,0 C 6,2 C 78 % 992,7 hPa 0,0 l/m 0 min 0 min 0 W/m 1,6 km/h (1 Bft) 100,00 %
21.01.2021 00:30 10,3 C 10,0 C 6,2 C 78 % 992,7 hPa 0,0 l/m 0 min 0 min 0 W/m 0,0 km/h (0 Bft) 97,87 %
21.01.2021 00:32 10,3 C 10,0 C 6,2 C 78 % 992,7 hPa 0,0 l/m 0 min 0 min 0 W/m 3,2 km/h (1 Bft) 100,00 %
21.01.2021 00:34 10,3 C 10,0 C 6,7 C 78 % 992,7 hPa 0,0 l/m 0 min 0 min 0 W/m 8,0 km/h (2 Bft) 100,00 %
21.01.2021 00:36 10,3 C 10,0 C 6,2 C 78 % 992,7 hPa 0,0 l/m 0 min 0 min 0 W/m 3,2 km/h (1 Bft) 100,00 %
21.01.2021 00:38 10,4 C 10,0 C 6,2 C 78 % 992,5 hPa 0,0 l/m 0 min 0 min 0 W/m 3,2 km/h (1 Bft) 100,00 %
21.01.2021 00:40 10,4 C 10,0 C 6,2 C 77 % 992,4 hPa 0,0 l/m 0 min 0 min 0 W/m 1,6 km/h (1 Bft) 100,00 %
21.01.2021 00:42 10,4 C 10,0 C 6,2 C 77 % 992,3 hPa 0,0 l/m 0 min 0 min 0 W/m 1,6 km/h (1 Bft) 100,00 %
21.01.2021 00:44 10,4 C 10,0 C 6,2 C 77 % 992,3 hPa 0,0 l/m 0 min 0 min 0 W/m 1,6 km/h (1 Bft) 100,00 %
21.01.2021 00:46 10,4 C 9,4 C 6,2 C 77 % 992,2 hPa 0,0 l/m 0 min 0 min 0 W/m 3,2 km/h (1 Bft) 100,00 %
21.01.2021 00:48 10,4 C 9,4 C 6,2 C 77 % 992,2 hPa 0,0 l/m 0 min 0 min 0 W/m 0,0 km/h (0 Bft) 100,00 %
21.01.2021 00:50 10,3 C 9,4 C 6,2 C 78 % 992,2 hPa 0,0 l/m 0 min 0 min 0 W/m 1,6 km/h (1 Bft) 100,00 %
21.01.2021 00:52 10,3 C 9,4 C 6,2 C 78 % 992,2 hPa 0,0 l/m 0 min 0 min 0 W/m 1,6 km/h (1 Bft) 100,00 %
21.01.2021 00:54 10,3 C 9,4 C 6,2 C 78 % 992,1 hPa 0,0 l/m 0 min 0 min 0 W/m 3,2 km/h (1 Bft) 100,00 %
21.01.2021 00:56 10,3 C 9,4 C 6,2 C 78 % 992,0 hPa 0,0 l/m 0 min 0 min 0 W/m 1,6 km/h (1 Bft) 100,00 %
21.01.2021 00:58 10,3 C 9,4 C 6,2 C 78 % 991,9 hPa 0,0 l/m 0 min 0 min 0 W/m 3,2 km/h (1 Bft) 100,00 %
21.01.2021 01:00 10,2 C 9,4 C 6,2 C 78 % 991,9 hPa 0,0 l/m 0 min 0 min 0 W/m 1,6 km/h (1 Bft) 100,00 %
21.01.2021 01:02 10,2 C 9,4 C 6,2 C 78 % 991,8 hPa 0,0 l/m 0 min 0 min 0 W/m 4,8 km/h (1 Bft) 100,00 %
21.01.2021 01:04 10,2 C 9,4 C 6,2 C 78 % 991,7 hPa 0,0 l/m 0 min 0 min 0 W/m 1,6 km/h (1 Bft) 100,00 %
21.01.2021 01:06 10,2 C 9,4 C 6,2 C 78 % 991,7 hPa 0,0 l/m 0 min 0 min 0 W/m 1,6 km/h (1 Bft) 100,00 %
21.01.2021 01:08 10,1 C 9,4 C 6,2 C 78 % 991,7 hPa 0,0 l/m 0 min 0 min 0 W/m 1,6 km/h (1 Bft) 97,87 %
21.01.2021 01:10 10,1 C 9,4 C 6,2 C 78 % 991,6 hPa 0,0 l/m 0 min 0 min 0 W/m 1,6 km/h (1 Bft) 97,83 %
21.01.2021 01:12 10,1 C 9,4 C 6,2 C 78 % 991,6 hPa 0,0 l/m 0 min 0 min 0 W/m 0,0 km/h (0 Bft) 100,00 %
21.01.2021 01:14 10,1 C 9,4 C 6,2 C 78 % 991,6 hPa 0,0 l/m 0 min 0 min 0 W/m 1,6 km/h (1 Bft) 97,87 %
21.01.2021 01:16 10,1 C 9,4 C 6,2 C 78 % 991,6 hPa 0,0 l/m 0 min 0 min 0 W/m 0,0 km/h (0 Bft) 97,87 %
21.01.2021 01:18 10,1 C 9,4 C 6,2 C 78 % 991,5 hPa 0,0 l/m 0 min 0 min 0 W/m 1,6 km/h (1 Bft) 97,87 %
21.01.2021 01:20 10,1 C 9,4 C 6,2 C 78 % 991,4 hPa 0,0 l/m 0 min 0 min 0 W/m 1,6 km/h (1 Bft) 97,87 %
21.01.2021 01:22 10,1 C 9,4 C 6,2 C 78 % 991,4 hPa 0,0 l/m 0 min 0 min 0 W/m 8,0 km/h (2 Bft) 95,65 %
21.01.2021 01:24 10,1 C 9,4 C 6,2 C 78 % 991,1 hPa 0,0 l/m 0 min 0 min 0 W/m 1,6 km/h (1 Bft) 100,00 %
21.01.2021 01:26 10,1 C 9,4 C 6,2 C 78 % 991,1 hPa 0,0 l/m 0 min 0 min 0 W/m 4,8 km/h (1 Bft) 97,87 %
21.01.2021 01:28 10,1 C 9,4 C 6,2 C 78 % 991,1 hPa 0,0 l/m 0 min 0 min 0 W/m 3,2 km/h (1 Bft) 97,83 %
21.01.2021 01:30 10,1 C 9,4 C 6,2 C 78 % 991,1 hPa 0,0 l/m 0 min 0 min 0 W/m 3,2 km/h (1 Bft) 91,49 %
21.01.2021 01:32 10,1 C 9,4 C 6,2 C 78 % 991,1 hPa 0,0 l/m 0 min 0 min 0 W/m 1,6 km/h (1 Bft) 97,87 %
21.01.2021 01:34 10,1 C 9,4 C 6,2 C 77 % 991,1 hPa 0,0 l/m 0 min 0 min 0 W/m 3,2 km/h (1 Bft) 97,87 %
21.01.2021 01:36 10,2 C 9,4 C 6,2 C 77 % 991,0 hPa 0,0 l/m 0 min 0 min 0 W/m 1,6 km/h (1 Bft) 95,74 %
21.01.2021 01:38 10,2 C 9,4 C 6,2 C 77 % 991,0 hPa 0,0 l/m 0 min 0 min 0 W/m 0,0 km/h (0 Bft) 100,00 %
21.01.2021 01:40 10,2 C 9,4 C 6,2 C 77 % 991,0 hPa 0,0 l/m 0 min 0 min 0 W/m 1,6 km/h (1 Bft) 97,83 %
21.01.2021 01:42 10,3 C 10,0 C 6,2 C 77 % 990,8 hPa 0,0 l/m 0 min 0 min 0 W/m 4,8 km/h (1 Bft) 97,87 %
21.01.2021 01:44 10,3 C 9,4 C 6,2 C 77 % 990,9 hPa 0,0 l/m 0 min 0 min 0 W/m 0,0 km/h (0 Bft) 97,87 %
21.01.2021 01:46 10,3 C 9,4 C 6,2 C 77 % 990,9 hPa 0,0 l/m 0 min 0 min 0 W/m 3,2 km/h (1 Bft) 97,87 %
21.01.2021 01:48 10,3 C 9,4 C 6,2 C 77 % 990,8 hPa 0,0 l/m 0 min 0 min 0 W/m 3,2 km/h (1 Bft) 95,74 %
21.01.2021 01:50 10,3 C 10,0 C 6,2 C 77 % 990,7 hPa 0,0 l/m 0 min 0 min 0 W/m 17,7 km/h (3 Bft) 93,62 %
21.01.2021 01:52 10,3 C 9,4 C 6,2 C 77 % 990,6 hPa 0,0 l/m 0 min 0 min 0 W/m 0,0 km/h (0 Bft) 95,65 %
21.01.2021 01:54 10,3 C 9,4 C 6,2 C 77 % 990,5 hPa 0,0 l/m 0 min 0 min 0 W/m 3,2 km/h (1 Bft) 93,62 %
21.01.2021 01:56 10,3 C 9,4 C 6,2 C 77 % 990,5 hPa 0,0 l/m 0 min 0 min 0 W/m 1,6 km/h (1 Bft) 95,74 %
21.01.2021 01:58 10,3 C 9,4 C 6,2 C 77 % 990,5 hPa 0,0 l/m 0 min 0 min 0 W/m 3,2 km/h (1 Bft) 95,74 %
21.01.2021 02:00 10,3 C 9,4 C 6,2 C 77 % 990,3 hPa 0,0 l/m 0 min 0 min 0 W/m 0,0 km/h (0 Bft) 95,74 %
21.01.2021 02:02 10,3 C 9,4 C 6,2 C 77 % 990,2 hPa 0,0 l/m 0 min 0 min 0 W/m 1,6 km/h (1 Bft) 95,74 %
21.01.2021 02:04 10,3 C 9,4 C 6,2 C 77 % 990,2 hPa 0,0 l/m 0 min 0 min 0 W/m 1,6 km/h (1 Bft) 95,65 %
21.01.2021 02:06 10,3 C 9,4 C 6,2 C 77 % 990,2 hPa 0,0 l/m 0 min 0 min 0 W/m 1,6 km/h (1 Bft) 97,87 %
21.01.2021 02:08 10,3 C 9,4 C 6,2 C 77 % 990,1 hPa 0,0 l/m 0 min 0 min 0 W/m 1,6 km/h (1 Bft) 95,74 %
21.01.2021 02:10 10,3 C 9,4 C 6,2 C 77 % 990,1 hPa 0,0 l/m 0 min 0 min 0 W/m 0,0 km/h (0 Bft) 91,49 %
21.01.2021 02:12 10,3 C 9,4 C 6,2 C 77 % 990,0 hPa 0,0 l/m 0 min 0 min 0 W/m 3,2 km/h (1 Bft) 95,74 %
21.01.2021 02:14 10,3 C 9,4 C 6,2 C 77 % 990,0 hPa 0,0 l/m 0 min 0 min 0 W/m 1,6 km/h (1 Bft) 97,87 %
21.01.2021 02:16 10,3 C 10,0 C 6,2 C 77 % 989,9 hPa 0,0 l/m 0 min 0 min 0 W/m 1,6 km/h (1 Bft) 97,83 %
21.01.2021 02:18 10,3 C 9,4 C 6,2 C 76 % 990,0 hPa 0,0 l/m 0 min 0 min 0 W/m 1,6 km/h (1 Bft) 95,74 %
21.01.2021 02:20 10,3 C 9,4 C 6,2 C 77 % 989,8 hPa 0,0 l/m 0 min 0 min 0 W/m 1,6 km/h (1 Bft) 97,87 %
21.01.2021 02:22 10,3 C 9,4 C 6,2 C 77 % 989,8 hPa 0,0 l/m 0 min 0 min 0 W/m 3,2 km/h (1 Bft) 95,74 %
21.01.2021 02:24 10,3 C 9,4 C 6,2 C 77 % 989,8 hPa 0,0 l/m 0 min 0 min 0 W/m 3,2 km/h (1 Bft) 97,87 %
21.01.2021 02:26 10,3 C 9,4 C 6,2 C 77 % 989,7 hPa 0,0 l/m 0 min 0 min 0 W/m 9,7 km/h (2 Bft) 95,74 %
21.01.2021 02:28 10,3 C 9,4 C 6,2 C 77 % 989,6 hPa 0,0 l/m 0 min 0 min 0 W/m 6,4 km/h (2 Bft) 95,65 %
21.01.2021 02:30 10,3 C 9,4 C 6,2 C 77 % 989,6 hPa 0,0 l/m 0 min 0 min 0 W/m 6,4 km/h (2 Bft) 97,87 %
21.01.2021 02:32 10,2 C 9,4 C 6,2 C 77 % 989,6 hPa 0,0 l/m 0 min 0 min 0 W/m 3,2 km/h (1 Bft) 95,74 %
21.01.2021 02:34 10,2 C 9,4 C 6,2 C 76 % 989,5 hPa 0,0 l/m 0 min 0 min 0 W/m 9,7 km/h (2 Bft) 95,74 %
21.01.2021 02:36 10,3 C 9,4 C 6,2 C 76 % 989,5 hPa 0,0 l/m 0 min 0 min 0 W/m 6,4 km/h (2 Bft) 97,87 %
21.01.2021 02:38 10,3 C 9,4 C 6,2 C 76 % 989,5 hPa 0,0 l/m 0 min 0 min 0 W/m 0,0 km/h (0 Bft) 95,65 %
21.01.2021 02:40 10,3 C 9,4 C 6,2 C 76 % 989,4 hPa 0,0 l/m 0 min 0 min 0 W/m 6,4 km/h (2 Bft) 97,87 %
21.01.2021 02:42 10,3 C 9,4 C 6,2 C 76 % 989,3 hPa 0,0 l/m 0 min 0 min 0 W/m 3,2 km/h (1 Bft) 95,74 %
21.01.2021 02:44 10,3 C 9,4 C 6,2 C 76 % 989,2 hPa 0,0 l/m 0 min 0 min 0 W/m 3,2 km/h (1 Bft) 95,74 %
21.01.2021 02:46 10,2 C 9,4 C 6,2 C 76 % 989,3 hPa 0,0 l/m 0 min 0 min 0 W/m 1,6 km/h (1 Bft) 97,87 %
21.01.2021 02:48 10,3 C 9,4 C 6,2 C 76 % 989,2 hPa 0,0 l/m 0 min 0 min 0 W/m 3,2 km/h (1 Bft) 97,87 %
21.01.2021 02:50 10,3 C 9,4 C 6,2 C 76 % 989,1 hPa 0,0 l/m 0 min 0 min 0 W/m 6,4 km/h (2 Bft) 97,83 %
21.01.2021 02:52 10,3 C 9,4 C 6,2 C 76 % 989,1 hPa 0,0 l/m 0 min 0 min 0 W/m 1,6 km/h (1 Bft) 97,87 %
21.01.2021 02:54 10,3 C 9,4 C 6,2 C 76 % 989,1 hPa 0,0 l/m 0 min 0 min 0 W/m 8,0 km/h (2 Bft) 97,87 %
21.01.2021 02:56 10,3 C 9,4 C 6,2 C 76 % 989,1 hPa 0,0 l/m 0 min 0 min 0 W/m 8,0 km/h (2 Bft) 95,74 %
21.01.2021 02:58 10,3 C 9,4 C 6,2 C 76 % 989,0 hPa 0,0 l/m 0 min 0 min 0 W/m 1,6 km/h (1 Bft) 97,87 %
21.01.2021 03:00 10,3 C 9,4 C 6,2 C 76 % 988,9 hPa 0,0 l/m 0 min 0 min 0 W/m 1,6 km/h (1 Bft) 97,87 %
21.01.2021 03:02 10,3 C 10,0 C 6,2 C 76 % 989,0 hPa 0,0 l/m 0 min 0 min 0 W/m 1,6 km/h (1 Bft) 97,87 %
21.01.2021 03:04 10,3 C 10,0 C 6,2 C 76 % 989,0 hPa 0,0 l/m 0 min 0 min 0 W/m 1,6 km/h (1 Bft) 97,83 %
21.01.2021 03:06 10,4 C 10,0 C 6,2 C 76 % 988,9 hPa 0,0 l/m 0 min 0 min 0 W/m 1,6 km/h (1 Bft) 97,87 %
21.01.2021 03:08 10,4 C 10,0 C 6,7 C 76 % 988,8 hPa 0,0 l/m 0 min 0 min 0 W/m 3,2 km/h (1 Bft) 97,87 %
21.01.2021 03:10 10,4 C 10,0 C 6,7 C 75 % 988,7 hPa 0,0 l/m 0 min 0 min 0 W/m 6,4 km/h (2 Bft) 97,87 %
21.01.2021 03:12 10,5 C 10,0 C 6,7 C 75 % 988,6 hPa 0,0 l/m 0 min 0 min 0 W/m 12,9 km/h (3 Bft) 97,87 %
21.01.2021 03:14 10,5 C 10,0 C 6,7 C 75 % 988,6 hPa 0,0 l/m 0 min 0 min 0 W/m 3,2 km/h (1 Bft) 97,83 %
21.01.2021 03:16 10,6 C 10,0 C 6,7 C 75 % 988,5 hPa 0,0 l/m 0 min 0 min 0 W/m 1,6 km/h (1 Bft) 100,00 %
21.01.2021 03:18 10,6 C 10,0 C 6,7 C 75 % 988,6 hPa 0,0 l/m 0 min 0 min 0 W/m 3,2 km/h (1 Bft) 97,87 %
21.01.2021 03:20 10,7 C 10,0 C 6,7 C 75 % 988,4 hPa 0,0 l/m 0 min 0 min 0 W/m 3,2 km/h (1 Bft) 100,00 %
21.01.2021 03:22 10,8 C 10,0 C 6,7 C 74 % 988,5 hPa 0,0 l/m 0 min 0 min 0 W/m 3,2 km/h (1 Bft) 100,00 %
21.01.2021 03:24 10,8 C 10,6 C 6,7 C 74 % 988,5 hPa 0,0 l/m 0 min 0 min 0 W/m 1,6 km/h (1 Bft) 100,00 %
21.01.2021 03:26 10,8 C 10,6 C 6,7 C 74 % 988,5 hPa 0,0 l/m 0 min 0 min 0 W/m 3,2 km/h (1 Bft) 100,00 %
21.01.2021 03:28 10,9 C 10,6 C 6,7 C 74 % 988,5 hPa 0,0 l/m 0 min 0 min 0 W/m 6,4 km/h (2 Bft) 100,00 %
21.01.2021 03:30 10,9 C 10,6 C 7,3 C 74 % 988,5 hPa 0,0 l/m 0 min 0 min 0 W/m 11,3 km/h (2 Bft) 97,87 %
21.01.2021 03:32 11,0 C 10,6 C 7,3 C 74 % 988,5 hPa 0,0 l/m 0 min 0 min 0 W/m 1,6 km/h (1 Bft) 100,00 %
21.01.2021 03:34 11,0 C 10,6 C 7,3 C 74 % 988,4 hPa 0,0 l/m 0 min 0 min 0 W/m 9,7 km/h (2 Bft) 100,00 %
21.01.2021 03:36 11,0 C 10,6 C 7,3 C 73 % 988,5 hPa 0,0 l/m 0 min 0 min 0 W/m 14,5 km/h (3 Bft) 97,87 %
21.01.2021 03:38 11,1 C 10,6 C 7,3 C 73 % 988,5 hPa 0,0 l/m 0 min 0 min 0 W/m 1,6 km/h (1 Bft) 100,00 %
21.01.2021 03:40 11,1 C 10,6 C 7,3 C 73 % 988,5 hPa 0,0 l/m 0 min 0 min 0 W/m 17,7 km/h (3 Bft) 97,87 %
21.01.2021 03:42 11,2 C 10,6 C 7,3 C 73 % 988,2 hPa 0,0 l/m 0 min 0 min 0 W/m 6,4 km/h (2 Bft) 100,00 %
21.01.2021 03:44 11,3 C 11,1 C 7,3 C 73 % 988,3 hPa 0,0 l/m 0 min 0 min 0 W/m 11,3 km/h (2 Bft) 100,00 %
21.01.2021 03:46 11,3 C 11,1 C 7,3 C 73 % 988,2 hPa 0,0 l/m 0 min 0 min 0 W/m 17,7 km/h (3 Bft) 97,87 %
21.01.2021 03:48 11,3 C 10,6 C 7,3 C 73 % 988,1 hPa 0,0 l/m 0 min 0 min 0 W/m 6,4 km/h (2 Bft) 100,00 %
21.01.2021 03:50 11,4 C 10,6 C 7,3 C 73 % 988,0 hPa 0,0 l/m 0 min 0 min 0 W/m 8,0 km/h (2 Bft) 100,00 %
21.01.2021 03:52 11,4 C 11,1 C 7,3 C 73 % 988,0 hPa 0,0 l/m 0 min 0 min 0 W/m 14,5 km/h (3 Bft) 100,00 %
21.01.2021 03:54 11,4 C 11,1 C 7,3 C 73 % 988,1 hPa 0,0 l/m 0 min 0 min 0 W/m 9,7 km/h (2 Bft) 100,00 %
21.01.2021 03:56 11,4 C 11,1 C 7,3 C 73 % 988,0 hPa 0,0 l/m 0 min 0 min 0 W/m 14,5 km/h (3 Bft) 100,00 %
21.01.2021 03:58 11,5 C 11,1 C 7,3 C 73 % 988,0 hPa 0,0 l/m 0 min 0 min 0 W/m 27,4 km/h (4 Bft) 97,87 %
21.01.2021 04:00 11,5 C 11,1 C 7,3 C 72 % 987,8 hPa 0,0 l/m 0 min 0 min 0 W/m 16,1 km/h (3 Bft) 100,00 %
21.01.2021 04:02 11,5 C 11,1 C 7,3 C 72 % 987,8 hPa 0,0 l/m 0 min 0 min 0 W/m 22,5 km/h (4 Bft) 100,00 %
21.01.2021 04:04 11,6 C 11,1 C 7,3 C 72 % 988,0 hPa 0,0 l/m 0 min 0 min 0 W/m 16,1 km/h (3 Bft) 100,00 %
21.01.2021 04:06 11,6 C 11,1 C 7,8 C 72 % 988,0 hPa 0,0 l/m 0 min 0 min 0 W/m 24,1 km/h (4 Bft) 100,00 %
21.01.2021 04:08 11,7 C 11,1 C 7,8 C 72 % 987,8 hPa 0,0 l/m 0 min 0 min 0 W/m 1,6 km/h (1 Bft) 100,00 %
21.01.2021 04:10 11,7 C 11,1 C 7,8 C 72 % 988,0 hPa 0,0 l/m 0 min 0 min 0 W/m 20,9 km/h (4 Bft) 100,00 %
21.01.2021 04:12 11,8 C 11,1 C 7,8 C 72 % 987,9 hPa 0,0 l/m 0 min 0 min 0 W/m 12,9 km/h (3 Bft) 100,00 %
21.01.2021 04:14 11,8 C 11,1 C 7,8 C 72 % 987,9 hPa 0,0 l/m 0 min 0 min 0 W/m 17,7 km/h (3 Bft) 100,00 %
21.01.2021 04:16 11,8 C 11,1 C 7,8 C 72 % 987,9 hPa 0,0 l/m 0 min 0 min 0 W/m 14,5 km/h (3 Bft) 97,87 %
21.01.2021 04:18 11,9 C 11,7 C 7,8 C 71 % 987,9 hPa 0,0 l/m 0 min 0 min 0 W/m 20,9 km/h (4 Bft) 100,00 %
21.01.2021 04:20 11,9 C 11,7 C 7,8 C 71 % 987,9 hPa 0,0 l/m 0 min 0 min 0 W/m 6,4 km/h (2 Bft) 100,00 %
21.01.2021 04:22 11,9 C 11,7 C 7,8 C 71 % 987,8 hPa 0,0 l/m 0 min 0 min 0 W/m 20,9 km/h (4 Bft) 100,00 %
21.01.2021 04:24 12,0 C 11,7 C 7,8 C 71 % 987,9 hPa 0,0 l/m 0 min 0 min 0 W/m 1,6 km/h (1 Bft) 100,00 %
21.01.2021 04:26 12,0 C 11,7 C 7,8 C 71 % 987,9 hPa 0,0 l/m 0 min 0 min 0 W/m 22,5 km/h (4 Bft) 100,00 %
21.01.2021 04:28 12,0 C 11,7 C 7,8 C 71 % 988,0 hPa 0,0 l/m 0 min 0 min 0 W/m 22,5 km/h (4 Bft) 97,78 %
21.01.2021 04:30 12,0 C 11,7 C 7,8 C 71 % 987,7 hPa 0,0 l/m 0 min 0 min 0 W/m 16,1 km/h (3 Bft) 95,74 %
21.01.2021 04:32 12,0 C 11,1 C 7,8 C 71 % 987,8 hPa 0,0 l/m 0 min 0 min 0 W/m 14,5 km/h (3 Bft) 97,83 %
21.01.2021 04:34 12,0 C 11,7 C 7,8 C 71 % 987,8 hPa 0,0 l/m 0 min 0 min 0 W/m 19,3 km/h (3 Bft) 97,87 %
21.01.2021 04:36 12,0 C 11,7 C 7,8 C 71 % 987,9 hPa 0,0 l/m 0 min 0 min 0 W/m 32,2 km/h (5 Bft) 98,31 %
21.01.2021 04:38 12,0 C 11,7 C 7,8 C 71 % 987,7 hPa 0,0 l/m 0 min 0 min 0 W/m 20,9 km/h (4 Bft) 95,74 %
21.01.2021 04:40 12,0 C 11,7 C 7,8 C 71 % 987,8 hPa 0,0 l/m 0 min 2 min 0 W/m 17,7 km/h (3 Bft) 100,00 %
21.01.2021 04:42 12,0 C 11,1 C 7,3 C 71 % 987,8 hPa 0,0 l/m 0 min 0 min 0 W/m 12,9 km/h (3 Bft) 97,87 %
21.01.2021 04:44 12,0 C 11,1 C 7,3 C 72 % 987,7 hPa 0,0 l/m 0 min 0 min 0 W/m 17,7 km/h (3 Bft) 97,83 %
21.01.2021 04:46 12,0 C 11,7 C 7,3 C 72 % 987,8 hPa 0,0 l/m 0 min 0 min 0 W/m 30,6 km/h (5 Bft) 97,87 %
21.01.2021 04:48 12,0 C 11,1 C 7,3 C 72 % 987,7 hPa 0,0 l/m 0 min 0 min 0 W/m 9,7 km/h (2 Bft) 95,74 %
21.01.2021 04:50 12,0 C 11,1 C 7,3 C 72 % 987,7 hPa 0,0 l/m 0 min 0 min 0 W/m 12,9 km/h (3 Bft) 97,87 %
21.01.2021 04:52 12,0 C 11,1 C 7,3 C 72 % 987,6 hPa 0,0 l/m 0 min 0 min 0 W/m 6,4 km/h (2 Bft) 89,36 %
21.01.2021 04:54 12,0 C 11,7 C 7,8 C 72 % 987,6 hPa 0,0 l/m 0 min 0 min 0 W/m 29,0 km/h (5 Bft) 95,74 %
21.01.2021 04:56 12,0 C 11,1 C 7,8 C 72 % 987,8 hPa 0,0 l/m 0 min 0 min 0 W/m 14,5 km/h (3 Bft) 95,65 %
21.01.2021 04:58 12,0 C 11,1 C 7,3 C 72 % 987,8 hPa 0,0 l/m 0 min 0 min 0 W/m 30,6 km/h (5 Bft) 95,74 %
21.01.2021 05:00 12,0 C 11,7 C 7,8 C 72 % 988,0 hPa 0,0 l/m 0 min 0 min 0 W/m 29,0 km/h (5 Bft) 95,74 %
21.01.2021 05:02 12,0 C 11,1 C 7,3 C 72 % 987,6 hPa 0,0 l/m 0 min 0 min 0 W/m 19,3 km/h (3 Bft) 93,62 %
21.01.2021 05:04 12,0 C 11,1 C 7,3 C 72 % 987,7 hPa 0,0 l/m 0 min 0 min 0 W/m 30,6 km/h (5 Bft) 93,62 %
21.01.2021 05:06 11,9 C 11,1 C 7,3 C 72 % 987,9 hPa 0,0 l/m 0 min 0 min 0 W/m 32,2 km/h (5 Bft) 95,74 %
21.01.2021 05:08 11,9 C 11,1 C 7,3 C 73 % 987,9 hPa 0,0 l/m 0 min 0 min 0 W/m 25,7 km/h (4 Bft) 94,83 %
21.01.2021 05:10 11,9 C 11,1 C 7,3 C 73 % 987,8 hPa 0,0 l/m 0 min 0 min 0 W/m 27,4 km/h (4 Bft) 94,29 %
21.01.2021 05:12 11,9 C 11,1 C 7,3 C 73 % 987,8 hPa 0,0 l/m 0 min 0 min 0 W/m 11,3 km/h (2 Bft) 95,74 %
21.01.2021 05:14 11,9 C 11,1 C 7,3 C 73 % 987,8 hPa 0,0 l/m 0 min 0 min 0 W/m 24,1 km/h (4 Bft) 93,62 %
21.01.2021 05:16 11,9 C 11,1 C 7,3 C 73 % 987,7 hPa 0,0 l/m 0 min 0 min 0 W/m 20,9 km/h (4 Bft) 95,74 %
21.01.2021 05:18 11,9 C 11,1 C 7,3 C 73 % 988,0 hPa 0,0 l/m 0 min 0 min 0 W/m 32,2 km/h (5 Bft) 95,74 %
21.01.2021 05:20 11,9 C 11,1 C 7,3 C 73 % 988,0 hPa 0,0 l/m 0 min 0 min 0 W/m 24,1 km/h (4 Bft) 95,65 %
21.01.2021 05:22 11,9 C 11,1 C 7,3 C 73 % 987,9 hPa 0,0 l/m 0 min 0 min 0 W/m 29,0 km/h (5 Bft) 95,74 %
21.01.2021 05:24 11,9 C 11,1 C 7,3 C 73 % 987,9 hPa 0,0 l/m 0 min 0 min 0 W/m 17,7 km/h (3 Bft) 93,62 %
21.01.2021 05:26 11,8 C 11,1 C 7,3 C 74 % 987,7 hPa 0,0 l/m 0 min 0 min 0 W/m 22,5 km/h (4 Bft) 95,74 %
21.01.2021 05:28 11,8 C 11,1 C 7,3 C 74 % 987,8 hPa 0,0 l/m 0 min 0 min 0 W/m 25,7 km/h (4 Bft) 95,74 %
21.01.2021 05:30 11,8 C 11,1 C 7,3 C 74 % 987,5 hPa 0,0 l/m 0 min 0 min 0 W/m 16,1 km/h (3 Bft) 94,00 %
21.01.2021 05:32 11,8 C 11,1 C 7,3 C 74 % 987,5 hPa 0,0 l/m 0 min 0 min 0 W/m 11,3 km/h (2 Bft) 95,74 %
21.01.2021 05:34 11,8 C 11,1 C 7,3 C 75 % 987,2 hPa 0,0 l/m 0 min 0 min 0 W/m 27,4 km/h (4 Bft) 97,87 %
21.01.2021 05:36 11,8 C 11,1 C 7,3 C 75 % 987,5 hPa 0,0 l/m 0 min 0 min 0 W/m 19,3 km/h (3 Bft) 95,65 %
21.01.2021 05:38 11,8 C 11,1 C 7,3 C 75 % 987,6 hPa 0,0 l/m 0 min 0 min 0 W/m 24,1 km/h (4 Bft) 95,74 %
21.01.2021 05:40 11,7 C 11,1 C 7,3 C 75 % 987,6 hPa 0,0 l/m 0 min 0 min 0 W/m 16,1 km/h (3 Bft) 93,62 %
21.01.2021 05:42 11,8 C 11,1 C 7,3 C 75 % 987,5 hPa 0,0 l/m 0 min 0 min 0 W/m 30,6 km/h (5 Bft) 93,62 %
21.01.2021 05:44 11,8 C 11,1 C 7,3 C 75 % 987,5 hPa 0,0 l/m 0 min 0 min 0 W/m 22,5 km/h (4 Bft) 94,34 %
21.01.2021 05:46 11,7 C 11,1 C 7,3 C 75 % 987,5 hPa 0,0 l/m 0 min 0 min 0 W/m 1,6 km/h (1 Bft) 95,74 %
21.01.2021 05:48 11,7 C 11,1 C 7,3 C 76 % 987,5 hPa 0,0 l/m 0 min 0 min 0 W/m 16,1 km/h (3 Bft) 97,37 %
21.01.2021 05:50 11,7 C 11,1 C 7,3 C 76 % 987,4 hPa 0,0 l/m 0 min 0 min 0 W/m 11,3 km/h (2 Bft) 95,74 %
21.01.2021 05:52 11,7 C 11,1 C 7,3 C 76 % 987,4 hPa 0,0 l/m 0 min 0 min 0 W/m 17,7 km/h (3 Bft) 97,87 %
21.01.2021 05:54 11,7 C 10,6 C 7,3 C 76 % 987,4 hPa 0,0 l/m 0 min 2 min 0 W/m 22,5 km/h (4 Bft) 97,87 %
21.01.2021 05:56 11,7 C 10,0 C 6,7 C 77 % 987,4 hPa 0,0 l/m 0 min 2 min 0 W/m 24,1 km/h (4 Bft) 95,65 %
21.01.2021 05:58 11,6 C 10,0 C 6,2 C 77 % 987,4 hPa 0,0 l/m 0 min 2 min 0 W/m 3,2 km/h (1 Bft) 97,87 %
21.01.2021 06:00 11,6 C 9,4 C 6,2 C 78 % 987,5 hPa 0,0 l/m 0 min 2 min 0 W/m 0,0 km/h (0 Bft) 97,87 %
21.01.2021 06:02 11,6 C 9,4 C 6,2 C 78 % 987,5 hPa 0,0 l/m 0 min 2 min 0 W/m 9,7 km/h (2 Bft) 93,62 %
21.01.2021 06:04 11,5 C 10,0 C 5,6 C 78 % 987,3 hPa 0,0 l/m 0 min 2 min 0 W/m 11,3 km/h (2 Bft) 97,87 %
21.01.2021 06:08 11,4 C 8,9 C 5,0 C 79 % 987,6 hPa 0,0 l/m 0 min 4 min 0 W/m 20,9 km/h (4 Bft) 97,85 %
21.01.2021 06:10 11,4 C 8,3 C 5,0 C 80 % 988,2 hPa 0,2 l/m 0 min 2 min 0 W/m 43,5 km/h (6 Bft) 100,00 %
21.01.2021 06:12 11,0 C 6,1 C 3,4 C 80 % 989,7 hPa 0,8 l/m 0 min 2 min 0 W/m 25,7 km/h (4 Bft) 95,74 %
21.01.2021 06:14 10,5 C 5,6 C 2,3 C 79 % 989,9 hPa 0,6 l/m 0 min 2 min 0 W/m 16,1 km/h (3 Bft) 100,00 %
21.01.2021 06:16 9,9 C 5,0 C 2,3 C 80 % 990,1 hPa 0,2 l/m 0 min 2 min 0 W/m 19,3 km/h (3 Bft) 97,87 %
21.01.2021 06:18 9,3 C 5,0 C 2,3 C 81 % 990,1 hPa 0,0 l/m 0 min 2 min 0 W/m 29,0 km/h (5 Bft) 100,00 %
21.01.2021 06:20 8,7 C 5,0 C 2,3 C 82 % 990,1 hPa 0,2 l/m 0 min 2 min 0 W/m 6,4 km/h (2 Bft) 100,00 %
21.01.2021 06:22 8,3 C 5,0 C 2,3 C 83 % 990,2 hPa 0,0 l/m 0 min 2 min 0 W/m 24,1 km/h (4 Bft) 97,87 %
21.01.2021 06:24 8,0 C 5,0 C 1,7 C 84 % 990,5 hPa 0,0 l/m 0 min 2 min 0 W/m 19,3 km/h (3 Bft) 100,00 %
21.01.2021 06:26 7,6 C 5,0 C 1,7 C 85 % 990,6 hPa 0,2 l/m 0 min 2 min 0 W/m 30,6 km/h (5 Bft) 100,00 %
21.01.2021 06:28 7,4 C 4,4 C 1,7 C 85 % 990,6 hPa 0,0 l/m 0 min 2 min 0 W/m 27,4 km/h (4 Bft) 97,87 %
21.01.2021 06:30 7,2 C 4,4 C 1,7 C 86 % 990,7 hPa 0,0 l/m 0 min 2 min 0 W/m 20,9 km/h (4 Bft) 100,00 %
21.01.2021 06:32 7,0 C 4,4 C 1,7 C 87 % 990,7 hPa 0,0 l/m 0 min 2 min 0 W/m 12,9 km/h (3 Bft) 100,00 %
21.01.2021 06:34 6,9 C 4,4 C 1,7 C 87 % 990,7 hPa 0,0 l/m 0 min 2 min 0 W/m 9,7 km/h (2 Bft) 97,87 %
21.01.2021 06:36 6,8 C 4,4 C 1,7 C 88 % 990,7 hPa 0,2 l/m 0 min 2 min 0 W/m 20,9 km/h (4 Bft) 97,87 %
21.01.2021 06:38 6,6 C 4,4 C 1,7 C 88 % 990,8 hPa 0,0 l/m 0 min 2 min 0 W/m 0,0 km/h (0 Bft) 100,00 %
21.01.2021 06:40 6,6 C 4,4 C 1,7 C 88 % 991,0 hPa 0,0 l/m 0 min 2 min 0 W/m 0,0 km/h (0 Bft) 100,00 %
21.01.2021 06:42 6,5 C 4,4 C 1,7 C 89 % 991,0 hPa 0,0 l/m 0 min 2 min 0 W/m 3,2 km/h (1 Bft) 100,00 %
21.01.2021 06:44 6,5 C 4,4 C 1,7 C 89 % 991,0 hPa 0,0 l/m 0 min 2 min 0 W/m 1,6 km/h (1 Bft) 100,00 %
21.01.2021 06:46 6,4 C 4,4 C 1,7 C 89 % 991,2 hPa 0,0 l/m 0 min 2 min 0 W/m 6,4 km/h (2 Bft) 100,00 %
21.01.2021 06:48 6,4 C 4,4 C 2,3 C 90 % 991,2 hPa 0,0 l/m 0 min 2 min 0 W/m 17,7 km/h (3 Bft) 100,00 %
21.01.2021 06:50 6,3 C 4,4 C 2,3 C 90 % 991,2 hPa 0,2 l/m 0 min 2 min 0 W/m 19,3 km/h (3 Bft) 100,00 %
21.01.2021 06:52 6,3 C 4,4 C 1,7 C 90 % 991,0 hPa 0,0 l/m 0 min 2 min 0 W/m 16,1 km/h (3 Bft) 100,00 %
21.01.2021 06:54 6,2 C 4,4 C 1,7 C 90 % 991,1 hPa 0,0 l/m 0 min 2 min 0 W/m 11,3 km/h (2 Bft) 97,92 %
21.01.2021 06:56 6,1 C 4,4 C 1,7 C 90 % 991,3 hPa 0,0 l/m 0 min 2 min 0 W/m 22,5 km/h (4 Bft) 100,00 %
21.01.2021 06:58 6,1 C 4,4 C 2,3 C 90 % 991,2 hPa 0,0 l/m 0 min 2 min 0 W/m 32,2 km/h (5 Bft) 100,00 %
21.01.2021 07:00 6,1 C 4,4 C 2,3 C 90 % 991,4 hPa 0,0 l/m 0 min 2 min 0 W/m 41,8 km/h (6 Bft) 100,00 %
21.01.2021 07:02 6,0 C 4,4 C 2,3 C 90 % 991,2 hPa 0,0 l/m 0 min 2 min 0 W/m 12,9 km/h (3 Bft) 100,00 %
21.01.2021 07:04 6,0 C 4,4 C 1,7 C 90 % 991,3 hPa 0,0 l/m 0 min 2 min 0 W/m 32,2 km/h (5 Bft) 100,00 %
21.01.2021 07:06 6,0 C 4,4 C 1,7 C 90 % 991,4 hPa 0,0 l/m 0 min 2 min 0 W/m 16,1 km/h (3 Bft) 100,00 %
21.01.2021 07:08 6,0 C 4,4 C 2,3 C 91 % 991,4 hPa 0,0 l/m 0 min 2 min 0 W/m 3,2 km/h (1 Bft) 100,00 %
21.01.2021 07:10 5,9 C 4,4 C 2,3 C 91 % 991,4 hPa 0,0 l/m 0 min 2 min 0 W/m 3,2 km/h (1 Bft) 100,00 %
21.01.2021 07:12 5,9 C 4,4 C 2,3 C 91 % 991,5 hPa 0,0 l/m 0 min 2 min 0 W/m 32,2 km/h (5 Bft) 100,00 %
21.01.2021 07:14 5,9 C 4,4 C 2,3 C 91 % 991,6 hPa 0,0 l/m 0 min 2 min 0 W/m 32,2 km/h (5 Bft) 100,00 %
21.01.2021 07:16 5,9 C 4,4 C 2,3 C 91 % 991,5 hPa 0,0 l/m 0 min 2 min 0 W/m 22,5 km/h (4 Bft) 97,87 %
21.01.2021 07:18 5,9 C 4,4 C 2,3 C 91 % 991,6 hPa 0,0 l/m 0 min 2 min 0 W/m 32,2 km/h (5 Bft) 100,00 %
21.01.2021 07:20 5,9 C 4,4 C 2,3 C 91 % 991,5 hPa 0,0 l/m 0 min 2 min 0 W/m 35,4 km/h (5 Bft) 100,00 %
21.01.2021 07:22 5,9 C 4,4 C 2,3 C 91 % 991,6 hPa 0,0 l/m 0 min 2 min 0 W/m 32,2 km/h (5 Bft) 100,00 %
21.01.2021 07:24 5,8 C 4,4 C 2,3 C 91 % 991,6 hPa 0,0 l/m 0 min 2 min 0 W/m 0,0 km/h (0 Bft) 97,83 %
21.01.2021 07:26 5,8 C 4,4 C 2,3 C 91 % 991,9 hPa 0,0 l/m 0 min 2 min 0 W/m 16,1 km/h (3 Bft) 100,00 %
21.01.2021 07:28 5,8 C 4,4 C 2,3 C 91 % 991,9 hPa 0,0 l/m 0 min 2 min 0 W/m 25,7 km/h (4 Bft) 100,00 %
21.01.2021 07:30 5,8 C 4,4 C 2,3 C 91 % 992,0 hPa 0,0 l/m 0 min 2 min 0 W/m 6,4 km/h (2 Bft) 97,87 %
21.01.2021 07:32 5,8 C 4,4 C 2,3 C 91 % 992,1 hPa 0,0 l/m 0 min 2 min 0 W/m 3,2 km/h (1 Bft) 97,78 %
21.01.2021 07:34 5,8 C 4,4 C 2,3 C 91 % 992,0 hPa 0,0 l/m 0 min 2 min 0 W/m 12,9 km/h (3 Bft) 97,87 %
21.01.2021 07:36 5,8 C 4,4 C 2,3 C 91 % 992,0 hPa 0,0 l/m 0 min 2 min 0 W/m 29,0 km/h (5 Bft) 97,87 %
21.01.2021 07:38 5,8 C 4,4 C 2,3 C 91 % 992,1 hPa 0,0 l/m 0 min 2 min 0 W/m 35,4 km/h (5 Bft) 97,87 %
21.01.2021 07:40 5,7 C 4,4 C 2,3 C 92 % 992,1 hPa 0,0 l/m 0 min 2 min 0 W/m 32,2 km/h (5 Bft) 93,48 %
21.01.2021 07:42 5,7 C 4,4 C 2,3 C 91 % 992,3 hPa 0,0 l/m 0 min 2 min 0 W/m 16,1 km/h (3 Bft) 97,87 %
21.01.2021 07:44 5,7 C 4,4 C 2,3 C 91 % 992,3 hPa 0,0 l/m 0 min 2 min 0 W/m 3,2 km/h (1 Bft) 95,74 %
21.01.2021 07:46 5,6 C 4,4 C 2,3 C 91 % 992,0 hPa 0,0 l/m 0 min 2 min 0 W/m 22,5 km/h (4 Bft) 95,74 %
21.01.2021 07:48 5,6 C 4,4 C 2,3 C 91 % 992,2 hPa 0,0 l/m 0 min 2 min 0 W/m 25,7 km/h (4 Bft) 97,87 %
21.01.2021 07:50 5,6 C 4,4 C 2,3 C 91 % 992,2 hPa 0,0 l/m 0 min 2 min 0 W/m 29,0 km/h (5 Bft) 95,74 %
21.01.2021 07:52 5,6 C 4,4 C 2,3 C 91 % 992,0 hPa 0,0 l/m 0 min 2 min 0 W/m 3,2 km/h (1 Bft) 97,83 %
21.01.2021 07:54 5,6 C 4,4 C 2,3 C 91 % 992,2 hPa 0,0 l/m 0 min 2 min 0 W/m 12,9 km/h (3 Bft) 97,87 %
21.01.2021 07:56 5,6 C 4,4 C 2,3 C 91 % 992,4 hPa 0,0 l/m 0 min 2 min 0 W/m 25,7 km/h (4 Bft) 97,87 %
21.01.2021 07:58 5,6 C 4,4 C 2,3 C 91 % 992,5 hPa 0,0 l/m 0 min 2 min 0 W/m 38,6 km/h (5 Bft) 93,62 %
21.01.2021 08:00 5,6 C 4,4 C 2,3 C 91 % 992,5 hPa 0,0 l/m 0 min 2 min 0 W/m 0,0 km/h (0 Bft) 95,74 %
21.01.2021 08:02 5,6 C 4,4 C 2,3 C 91 % 992,5 hPa 0,0 l/m 0 min 0 min 0 W/m 3,2 km/h (1 Bft) 95,74 %
21.01.2021 08:04 5,6 C 4,4 C 2,3 C 91 % 992,6 hPa 0,0 l/m 0 min 0 min 0 W/m 0,0 km/h (0 Bft) 95,65 %
21.01.2021 08:06 5,6 C 4,4 C 2,3 C 91 % 992,6 hPa 0,0 l/m 0 min 0 min 0 W/m 12,9 km/h (3 Bft) 95,74 %
21.01.2021 08:08 5,7 C 5,0 C 2,3 C 91 % 992,8 hPa 0,0 l/m 0 min 2 min 0 W/m 25,7 km/h (4 Bft) 95,74 %
21.01.2021 08:10 5,7 C 5,0 C 2,3 C 91 % 992,9 hPa 0,0 l/m 0 min 0 min 0 W/m 25,7 km/h (4 Bft) 95,83 %
21.01.2021 08:12 5,7 C 5,0 C 2,3 C 91 % 992,8 hPa 0,0 l/m 0 min 0 min 0 W/m 3,2 km/h (1 Bft) 95,74 %
21.01.2021 08:14 5,7 C 5,0 C 2,3 C 91 % 993,0 hPa 0,0 l/m 0 min 0 min 0 W/m 3,2 km/h (1 Bft) 91,49 %
21.01.2021 08:16 5,8 C 5,0 C 2,3 C 91 % 992,9 hPa 0,0 l/m 0 min 2 min 0 W/m 25,7 km/h (4 Bft) 93,62 %
21.01.2021 08:18 5,8 C 5,0 C 2,3 C 91 % 992,8 hPa 0,0 l/m 0 min 0 min 0 W/m 29,0 km/h (5 Bft) 93,62 %
21.01.2021 08:20 5,8 C 5,0 C 2,3 C 91 % 992,9 hPa 0,0 l/m 0 min 0 min 0 W/m 12,9 km/h (3 Bft) 95,74 %
21.01.2021 08:22 5,8 C 5,0 C 2,3 C 91 % 993,1 hPa 0,0 l/m 0 min 0 min 0 W/m 22,5 km/h (4 Bft) 95,65 %
21.01.2021 08:24 5,8 C 5,0 C 2,3 C 91 % 992,9 hPa 0,0 l/m 0 min 0 min 0 W/m 32,2 km/h (5 Bft) 97,87 %
21.01.2021 08:26 5,8 C 5,0 C 2,3 C 91 % 992,9 hPa 0,0 l/m 0 min 0 min 0 W/m 12,9 km/h (3 Bft) 95,74 %
21.01.2021 08:28 5,8 C 5,0 C 2,3 C 90 % 993,0 hPa 0,0 l/m 0 min 0 min 0 W/m 0,0 km/h (0 Bft) 95,74 %
21.01.2021 08:30 5,9 C 5,0 C 2,3 C 90 % 993,1 hPa 0,0 l/m 0 min 0 min 0 W/m 3,2 km/h (1 Bft) 97,87 %
21.01.2021 08:32 5,9 C 5,0 C 2,3 C 91 % 993,1 hPa 0,0 l/m 0 min 0 min 0 W/m 0,0 km/h (0 Bft) 97,87 %
21.01.2021 08:34 5,9 C 5,0 C 2,3 C 90 % 993,1 hPa 0,0 l/m 0 min 0 min 0 W/m 16,1 km/h (3 Bft) 97,83 %
21.01.2021 08:36 5,9 C 5,0 C 2,3 C 90 % 993,1 hPa 0,0 l/m 0 min 0 min 0 W/m 9,7 km/h (2 Bft) 97,87 %
21.01.2021 08:38 5,9 C 5,0 C 2,3 C 90 % 993,1 hPa 0,0 l/m 0 min 0 min 4 W/m 29,0 km/h (5 Bft) 97,87 %
21.01.2021 08:40 5,9 C 5,0 C 2,3 C 90 % 993,1 hPa 0,0 l/m 0 min 0 min 5 W/m 0,0 km/h (0 Bft) 97,87 %
21.01.2021 08:42 5,8 C 5,0 C 2,3 C 90 % 993,1 hPa 0,0 l/m 0 min 0 min 5 W/m 38,6 km/h (5 Bft) 97,87 %
21.01.2021 08:44 5,8 C 5,6 C 2,3 C 90 % 993,1 hPa 0,0 l/m 0 min 0 min 5 W/m 19,3 km/h (3 Bft) 100,00 %
21.01.2021 08:46 5,8 C 5,6 C 2,3 C 90 % 993,2 hPa 0,0 l/m 0 min 0 min 5 W/m 29,0 km/h (5 Bft) 97,83 %
21.01.2021 08:48 5,8 C 5,0 C 2,3 C 90 % 993,2 hPa 0,0 l/m 0 min 0 min 5 W/m 3,2 km/h (1 Bft) 100,00 %
21.01.2021 08:50 5,8 C 5,0 C 2,3 C 90 % 993,3 hPa 0,0 l/m 0 min 0 min 6 W/m 3,2 km/h (1 Bft) 100,00 %
21.01.2021 08:52 5,8 C 5,0 C 2,3 C 90 % 993,4 hPa 0,0 l/m 0 min 0 min 7 W/m 0,0 km/h (0 Bft) 100,00 %
21.01.2021 08:54 5,8 C 5,0 C 2,3 C 90 % 993,6 hPa 0,0 l/m 0 min 0 min 7 W/m 0,0 km/h (0 Bft) 100,00 %
21.01.2021 08:56 5,8 C 5,0 C 2,3 C 90 % 993,5 hPa 0,0 l/m 0 min 0 min 7 W/m 0,0 km/h (0 Bft) 100,00 %
21.01.2021 08:58 5,8 C 5,0 C 2,3 C 90 % 993,6 hPa 0,0 l/m 0 min 0 min 7 W/m 0,0 km/h (0 Bft) 100,00 %
21.01.2021 09:00 5,8 C 5,0 C 2,3 C 89 % 993,6 hPa 0,0 l/m 0 min 0 min 8 W/m 3,2 km/h (1 Bft) 100,00 %
21.01.2021 09:02 5,8 C 5,6 C 2,3 C 89 % 993,6 hPa 0,0 l/m 0 min 0 min 9 W/m 29,0 km/h (5 Bft) 100,00 %
21.01.2021 09:04 5,8 C 5,0 C 2,3 C 89 % 993,7 hPa 0,0 l/m 0 min 0 min 9 W/m 0,0 km/h (0 Bft) 100,00 %
21.01.2021 09:06 5,8 C 5,0 C 2,3 C 89 % 993,7 hPa 0,0 l/m 0 min 0 min 9 W/m 6,4 km/h (2 Bft) 100,00 %
21.01.2021 09:08 5,8 C 5,0 C 2,3 C 89 % 993,7 hPa 0,0 l/m 0 min 0 min 9 W/m 0,0 km/h (0 Bft) 100,00 %
21.01.2021 09:10 5,8 C 5,0 C 2,3 C 89 % 993,8 hPa 0,0 l/m 0 min 0 min 11 W/m 25,7 km/h (4 Bft) 100,00 %
21.01.2021 09:12 5,8 C 5,0 C 2,3 C 89 % 993,8 hPa 0,0 l/m 0 min 0 min 11 W/m 0,0 km/h (0 Bft) 100,00 %
21.01.2021 09:14 5,8 C 5,0 C 2,3 C 89 % 993,8 hPa 0,0 l/m 0 min 0 min 11 W/m 0,0 km/h (0 Bft) 100,00 %
21.01.2021 09:16 5,7 C 5,0 C 2,3 C 89 % 993,8 hPa 0,0 l/m 0 min 0 min 12 W/m 0,0 km/h (0 Bft) 100,00 %
21.01.2021 09:18 5,7 C 5,0 C 2,3 C 89 % 993,8 hPa 0,0 l/m 0 min 0 min 13 W/m 3,2 km/h (1 Bft) 100,00 %
21.01.2021 09:20 5,7 C 5,0 C 2,3 C 89 % 993,8 hPa 0,0 l/m 0 min 0 min 14 W/m 19,3 km/h (3 Bft) 97,83 %
21.01.2021 09:22 5,7 C 5,0 C 2,3 C 89 % 993,8 hPa 0,0 l/m 0 min 0 min 14 W/m 9,7 km/h (2 Bft) 100,00 %
21.01.2021 09:24 5,7 C 5,0 C 2,3 C 89 % 993,8 hPa 0,0 l/m 0 min 0 min 16 W/m 25,7 km/h (4 Bft) 100,00 %
21.01.2021 09:26 5,7 C 5,0 C 2,3 C 89 % 993,8 hPa 0,0 l/m 0 min 0 min 16 W/m 0,0 km/h (0 Bft) 100,00 %
21.01.2021 09:28 5,7 C 5,0 C 2,3 C 89 % 993,9 hPa 0,0 l/m 0 min 0 min 16 W/m 0,0 km/h (0 Bft) 97,87 %
21.01.2021 09:30 5,6 C 5,0 C 2,3 C 89 % 993,9 hPa 0,0 l/m 0 min 0 min 16 W/m 0,0 km/h (0 Bft) 97,87 %
21.01.2021 09:32 5,6 C 5,0 C 2,3 C 89 % 993,8 hPa 0,0 l/m 0 min 0 min 17 W/m 12,9 km/h (3 Bft) 97,83 %
21.01.2021 09:34 5,6 C 5,0 C 2,3 C 89 % 993,9 hPa 0,0 l/m 0 min 0 min 18 W/m 12,9 km/h (3 Bft) 97,87 %
21.01.2021 09:36 5,7 C 5,6 C 2,3 C 89 % 993,7 hPa 0,0 l/m 0 min 0 min 18 W/m 3,2 km/h (1 Bft) 95,65 %
21.01.2021 09:38 5,7 C 5,6 C 2,3 C 89 % 993,9 hPa 0,0 l/m 0 min 0 min 18 W/m 6,4 km/h (2 Bft) 97,87 %
21.01.2021 09:40 5,7 C 5,6 C 2,3 C 89 % 993,8 hPa 0,0 l/m 0 min 0 min 18 W/m 9,7 km/h (2 Bft) 97,83 %
21.01.2021 09:42 5,7 C 5,6 C 2,3 C 89 % 993,9 hPa 0,0 l/m 0 min 0 min 18 W/m 12,9 km/h (3 Bft) 95,74 %
21.01.2021 09:44 5,7 C 5,6 C 2,3 C 89 % 993,9 hPa 0,0 l/m 0 min 0 min 19 W/m 3,2 km/h (1 Bft) 97,87 %
21.01.2021 09:46 5,7 C 5,6 C 2,3 C 89 % 993,9 hPa 0,0 l/m 0 min 0 min 19 W/m 19,3 km/h (3 Bft) 97,87 %
21.01.2021 09:48 5,8 C 5,6 C 2,3 C 89 % 993,9 hPa 0,0 l/m 0 min 0 min 19 W/m 3,2 km/h (1 Bft) 97,87 %
21.01.2021 09:50 5,8 C 5,6 C 2,3 C 89 % 993,9 hPa 0,0 l/m 0 min 0 min 19 W/m 22,5 km/h (4 Bft) 97,87 %
21.01.2021 09:52 5,8 C 5,6 C 2,3 C 89 % 994,0 hPa 0,0 l/m 0 min 0 min 19 W/m 25,7 km/h (4 Bft) 97,83 %
21.01.2021 09:54 5,8 C 5,6 C 2,3 C 89 % 994,0 hPa 0,0 l/m 0 min 0 min 20 W/m 6,4 km/h (2 Bft) 97,87 %
21.01.2021 09:56 5,8 C 5,6 C 2,3 C 89 % 994,0 hPa 0,0 l/m 0 min 0 min 21 W/m 16,1 km/h (3 Bft) 97,87 %
21.01.2021 09:58 5,8 C 5,6 C 2,3 C 89 % 994,1 hPa 0,0 l/m 0 min 0 min 21 W/m 16,1 km/h (3 Bft) 97,87 %
21.01.2021 10:00 5,9 C 5,6 C 2,3 C 88 % 994,1 hPa 0,0 l/m 0 min 0 min 21 W/m 6,4 km/h (2 Bft) 97,87 %
21.01.2021 10:02 5,9 C 5,6 C 2,3 C 88 % 994,1 hPa 0,0 l/m 0 min 0 min 21 W/m 6,4 km/h (2 Bft) 97,87 %
21.01.2021 10:04 5,9 C 5,6 C 2,3 C 88 % 994,1 hPa 0,0 l/m 0 min 0 min 23 W/m 19,3 km/h (3 Bft) 91,30 %
21.01.2021 10:06 5,9 C 5,6 C 2,3 C 88 % 994,1 hPa 0,0 l/m 0 min 0 min 23 W/m 3,2 km/h (1 Bft) 100,00 %
21.01.2021 10:08 5,9 C 5,6 C 2,3 C 88 % 994,1 hPa 0,0 l/m 0 min 0 min 23 W/m 16,1 km/h (3 Bft) 97,87 %
21.01.2021 10:10 5,9 C 5,6 C 2,3 C 88 % 994,1 hPa 0,0 l/m 0 min 0 min 24 W/m 12,9 km/h (3 Bft) 97,83 %
21.01.2021 10:12 5,9 C 5,6 C 2,3 C 88 % 994,1 hPa 0,0 l/m 0 min 0 min 26 W/m 0,0 km/h (0 Bft) 97,87 %
21.01.2021 10:14 6,0 C 5,6 C 2,3 C 88 % 994,1 hPa 0,0 l/m 0 min 0 min 33 W/m 12,9 km/h (3 Bft) 95,74 %
21.01.2021 10:16 6,0 C 6,1 C 2,8 C 88 % 994,2 hPa 0,0 l/m 0 min 0 min 43 W/m 25,7 km/h (4 Bft) 93,62 %
21.01.2021 10:18 6,0 C 6,1 C 2,8 C 88 % 994,2 hPa 0,0 l/m 0 min 0 min 56 W/m 32,2 km/h (5 Bft) 97,87 %
21.01.2021 10:20 6,1 C 6,1 C 2,8 C 87 % 994,3 hPa 0,0 l/m 0 min 0 min 74 W/m 0,0 km/h (0 Bft) 97,83 %
21.01.2021 10:22 6,1 C 6,1 C 2,8 C 87 % 994,3 hPa 0,0 l/m 0 min 0 min 76 W/m 3,2 km/h (1 Bft) 97,87 %
21.01.2021 10:24 6,2 C 6,7 C 2,8 C 87 % 994,3 hPa 0,0 l/m 0 min 0 min 82 W/m 6,4 km/h (2 Bft) 95,74 %
21.01.2021 10:26 6,3 C 6,7 C 3,4 C 87 % 994,5 hPa 0,0 l/m 0 min 0 min 90 W/m 6,4 km/h (2 Bft) 95,74 %
21.01.2021 10:28 6,3 C 6,7 C 3,4 C 87 % 994,4 hPa 0,0 l/m 0 min 0 min 91 W/m 3,2 km/h (1 Bft) 97,87 %
21.01.2021 10:30 6,4 C 6,7 C 3,4 C 87 % 994,3 hPa 0,0 l/m 0 min 0 min 84 W/m 9,7 km/h (2 Bft) 95,74 %
21.01.2021 10:32 6,4 C 6,7 C 3,4 C 87 % 994,4 hPa 0,0 l/m 0 min 0 min 64 W/m 6,4 km/h (2 Bft) 95,65 %
21.01.2021 10:34 6,4 C 6,7 C 3,4 C 86 % 994,4 hPa 0,0 l/m 0 min 0 min 58 W/m 16,1 km/h (3 Bft) 91,49 %
21.01.2021 10:36 6,5 C 6,7 C 3,4 C 86 % 994,5 hPa 0,0 l/m 0 min 0 min 65 W/m 0,0 km/h (0 Bft) 93,62 %
21.01.2021 10:38 6,5 C 6,7 C 3,4 C 86 % 994,4 hPa 0,0 l/m 0 min 0 min 88 W/m 6,4 km/h (2 Bft) 93,62 %
21.01.2021 10:40 6,6 C 6,7 C 3,4 C 86 % 994,5 hPa 0,0 l/m 0 min 0 min 99 W/m 22,5 km/h (4 Bft) 93,62 %
21.01.2021 10:42 6,6 C 6,7 C 3,4 C 86 % 994,5 hPa 0,0 l/m 0 min 0 min 94 W/m 19,3 km/h (3 Bft) 91,49 %
21.01.2021 10:44 6,7 C 7,2 C 3,4 C 86 % 994,5 hPa 0,0 l/m 0 min 0 min 101 W/m 0,0 km/h (0 Bft) 91,30 %
21.01.2021 10:46 6,8 C 7,2 C 3,4 C 85 % 994,6 hPa 0,0 l/m 0 min 0 min 98 W/m 0,0 km/h (0 Bft) 91,49 %
21.01.2021 10:48 6,9 C 6,7 C 3,4 C 85 % 994,6 hPa 0,0 l/m 0 min 0 min 93 W/m 29,0 km/h (5 Bft) 95,74 %
21.01.2021 10:50 6,9 C 6,7 C 3,4 C 85 % 994,5 hPa 0,0 l/m 0 min 0 min 94 W/m 12,9 km/h (3 Bft) 93,62 %
21.01.2021 10:52 6,9 C 6,7 C 3,4 C 85 % 994,6 hPa 0,0 l/m 0 min 0 min 95 W/m 12,9 km/h (3 Bft) 95,74 %
21.01.2021 10:54 7,0 C 7,2 C 3,9 C 84 % 994,5 hPa 0,0 l/m 0 min 0 min 90 W/m 19,3 km/h (3 Bft) 95,74 %
21.01.2021 10:56 7,0 C 7,2 C 3,4 C 84 % 994,6 hPa 0,0 l/m 0 min 0 min 98 W/m 6,4 km/h (2 Bft) 95,65 %
21.01.2021 10:58 7,0 C 6,7 C 3,4 C 84 % 994,7 hPa 0,0 l/m 0 min 0 min 81 W/m 32,2 km/h (5 Bft) 95,74 %
21.01.2021 11:00 7,0 C 6,7 C 3,4 C 84 % 994,8 hPa 0,0 l/m 0 min 0 min 49 W/m 35,4 km/h (5 Bft) 97,87 %
21.01.2021 11:02 7,0 C 6,7 C 3,4 C 84 % 994,6 hPa 0,0 l/m 0 min 0 min 63 W/m 29,0 km/h (5 Bft) 95,74 %
21.01.2021 11:04 7,1 C 7,2 C 3,4 C 84 % 994,6 hPa 0,0 l/m 0 min 0 min 95 W/m 3,2 km/h (1 Bft) 93,62 %
21.01.2021 11:06 7,1 C 7,2 C 3,4 C 84 % 994,6 hPa 0,0 l/m 0 min 0 min 92 W/m 12,9 km/h (3 Bft) 95,74 %
21.01.2021 11:08 7,1 C 7,2 C 3,4 C 83 % 994,6 hPa 0,0 l/m 0 min 0 min 76 W/m 35,4 km/h (5 Bft) 91,30 %
21.01.2021 11:10 7,1 C 6,7 C 3,4 C 83 % 994,6 hPa 0,0 l/m 0 min 0 min 70 W/m 48,3 km/h (6 Bft) 94,74 %
21.01.2021 11:12 7,1 C 6,7 C 4,5 C 83 % 994,6 hPa 0,0 l/m 0 min 0 min 76 W/m 32,2 km/h (5 Bft) 95,74 %
21.01.2021 11:14 7,1 C 6,7 C 4,5 C 83 % 994,7 hPa 0,0 l/m 0 min 0 min 102 W/m 12,9 km/h (3 Bft) 93,62 %
21.01.2021 11:16 7,1 C 6,7 C 4,5 C 83 % 994,7 hPa 0,0 l/m 0 min 0 min 110 W/m 0,0 km/h (0 Bft) 95,74 %
21.01.2021 11:18 7,1 C 7,2 C 4,5 C 82 % 994,7 hPa 0,0 l/m 0 min 0 min 126 W/m 0,0 km/h (0 Bft) 98,11 %
21.01.2021 11:20 7,1 C 7,2 C 4,5 C 82 % 994,7 hPa 0,0 l/m 0 min 0 min 135 W/m 25,7 km/h (4 Bft) 97,87 %
21.01.2021 11:22 7,2 C 7,2 C 5,0 C 83 % 994,7 hPa 0,0 l/m 0 min 0 min 145 W/m 3,2 km/h (1 Bft) 100,00 %
21.01.2021 11:24 7,2 C 7,2 C 4,5 C 83 % 994,7 hPa 0,0 l/m 0 min 0 min 88 W/m 3,2 km/h (1 Bft) 100,00 %
21.01.2021 11:26 7,3 C 7,2 C 4,5 C 83 % 994,7 hPa 0,0 l/m 0 min 0 min 92 W/m 0,0 km/h (0 Bft) 100,00 %
21.01.2021 11:28 7,3 C 7,2 C 4,5 C 83 % 994,7 hPa 0,0 l/m 0 min 0 min 107 W/m 3,2 km/h (1 Bft) 100,00 %
21.01.2021 11:30 7,3 C 7,2 C 4,5 C 83 % 994,7 hPa 0,0 l/m 0 min 0 min 108 W/m 6,4 km/h (2 Bft) 100,00 %
21.01.2021 11:32 7,4 C 7,2 C 4,5 C 83 % 994,8 hPa 0,0 l/m 0 min 0 min 87 W/m 0,0 km/h (0 Bft) 100,00 %
21.01.2021 11:34 7,4 C 7,2 C 4,5 C 83 % 994,9 hPa 0,0 l/m 0 min 0 min 87 W/m 22,5 km/h (4 Bft) 100,00 %
21.01.2021 11:36 7,4 C 7,2 C 5,0 C 83 % 994,9 hPa 0,0 l/m 0 min 0 min 123 W/m 6,4 km/h (2 Bft) 100,00 %
21.01.2021 11:38 7,4 C 7,2 C 5,0 C 83 % 994,8 hPa 0,0 l/m 0 min 0 min 125 W/m 16,1 km/h (3 Bft) 100,00 %
21.01.2021 11:40 7,4 C 7,2 C 5,0 C 83 % 994,9 hPa 0,0 l/m 0 min 0 min 122 W/m 3,2 km/h (1 Bft) 100,00 %
21.01.2021 11:42 7,4 C 7,2 C 4,5 C 82 % 994,9 hPa 0,0 l/m 0 min 0 min 101 W/m 3,2 km/h (1 Bft) 97,87 %
21.01.2021 11:44 7,4 C 7,8 C 4,5 C 82 % 995,0 hPa 0,0 l/m 0 min 0 min 136 W/m 16,1 km/h (3 Bft) 100,00 %
21.01.2021 11:46 7,4 C 7,2 C 4,5 C 82 % 995,0 hPa 0,0 l/m 0 min 0 min 94 W/m 32,2 km/h (5 Bft) 95,74 %
21.01.2021 11:48 7,4 C 7,2 C 4,5 C 82 % 995,0 hPa 0,0 l/m 0 min 0 min 109 W/m 19,3 km/h (3 Bft) 100,00 %
21.01.2021 11:50 7,5 C 7,2 C 4,5 C 82 % 994,9 hPa 0,0 l/m 0 min 0 min 97 W/m 25,7 km/h (4 Bft) 100,00 %
21.01.2021 11:52 7,5 C 7,2 C 4,5 C 82 % 994,9 hPa 0,0 l/m 0 min 0 min 108 W/m 0,0 km/h (0 Bft) 100,00 %
21.01.2021 11:54 7,5 C 7,2 C 5,0 C 82 % 994,9 hPa 0,0 l/m 0 min 0 min 158 W/m 0,0 km/h (0 Bft) 100,00 %
21.01.2021 11:56 7,5 C 7,2 C 5,0 C 82 % 994,9 hPa 0,0 l/m 0 min 0 min 148 W/m 35,4 km/h (5 Bft) 100,00 %
21.01.2021 11:58 7,5 C 7,8 C 5,0 C 82 % 994,9 hPa 0,0 l/m 0 min 0 min 133 W/m 41,8 km/h (6 Bft) 100,00 %
21.01.2021 12:00 7,5 C 7,8 C 5,0 C 81 % 994,9 hPa 0,0 l/m 0 min 0 min 138 W/m 19,3 km/h (3 Bft) 97,87 %
21.01.2021 12:02 7,5 C 7,2 C 5,0 C 81 % 994,9 hPa 0,0 l/m 0 min 0 min 100 W/m 0,0 km/h (0 Bft) 100,00 %
21.01.2021 12:04 7,6 C 7,2 C 4,5 C 81 % 994,8 hPa 0,0 l/m 0 min 0 min 89 W/m 0,0 km/h (0 Bft) 100,00 %
21.01.2021 12:08 7,6 C 7,2 C 5,0 C 80 % 994,8 hPa 0,0 l/m 0 min 0 min 116 W/m 22,5 km/h (4 Bft) 97,87 %
21.01.2021 12:10 7,6 C 7,2 C 4,5 C 80 % 994,9 hPa 0,0 l/m 0 min 0 min 92 W/m 35,4 km/h (5 Bft) 100,00 %
21.01.2021 12:12 7,6 C 7,2 C 4,5 C 80 % 994,8 hPa 0,0 l/m 0 min 0 min 70 W/m 0,0 km/h (0 Bft) 95,65 %
21.01.2021 12:14 7,6 C 7,2 C 4,5 C 81 % 994,8 hPa 0,0 l/m 0 min 0 min 76 W/m 0,0 km/h (0 Bft) 100,00 %
21.01.2021 12:16 7,6 C 7,2 C 4,5 C 81 % 994,7 hPa 0,0 l/m 0 min 0 min 82 W/m 22,5 km/h (4 Bft) 100,00 %
21.01.2021 12:18 7,6 C 7,2 C 4,5 C 81 % 994,8 hPa 0,0 l/m 0 min 0 min 81 W/m 6,4 km/h (2 Bft) 100,00 %
21.01.2021 12:20 7,6 C 7,2 C 4,5 C 81 % 994,7 hPa 0,0 l/m 0 min 0 min 84 W/m 29,0 km/h (5 Bft) 100,00 %
21.01.2021 12:22 7,6 C 7,2 C 4,5 C 81 % 994,7 hPa 0,0 l/m 0 min 0 min 87 W/m 0,0 km/h (0 Bft) 100,00 %
21.01.2021 12:24 7,6 C 7,2 C 4,5 C 81 % 994,9 hPa 0,0 l/m 0 min 0 min 97 W/m 6,4 km/h (2 Bft) 100,00 %
21.01.2021 12:26 7,6 C 7,2 C 4,5 C 81 % 994,9 hPa 0,0 l/m 0 min 0 min 103 W/m 19,3 km/h (3 Bft) 97,87 %
21.01.2021 12:28 7,6 C 7,2 C 4,5 C 80 % 994,8 hPa 0,0 l/m 0 min 0 min 116 W/m 32,2 km/h (5 Bft) 100,00 %
21.01.2021 12:30 7,7 C 7,2 C 5,0 C 80 % 994,9 hPa 0,0 l/m 0 min 0 min 118 W/m 3,2 km/h (1 Bft) 100,00 %
21.01.2021 12:32 7,7 C 7,2 C 4,5 C 80 % 994,9 hPa 0,0 l/m 0 min 0 min 118 W/m 38,6 km/h (5 Bft) 100,00 %
21.01.2021 12:34 7,7 C 7,2 C 5,0 C 80 % 994,9 hPa 0,0 l/m 0 min 0 min 138 W/m 38,6 km/h (5 Bft) 100,00 %
21.01.2021 12:36 7,7 C 7,8 C 5,0 C 80 % 994,9 hPa 0,0 l/m 0 min 0 min 164 W/m 6,4 km/h (2 Bft) 100,00 %
21.01.2021 12:38 7,7 C 7,8 C 5,0 C 80 % 994,8 hPa 0,0 l/m 0 min 0 min 163 W/m 48,3 km/h (6 Bft) 100,00 %
21.01.2021 12:40 7,8 C 7,8 C 5,0 C 80 % 994,9 hPa 0,0 l/m 0 min 0 min 160 W/m 9,7 km/h (2 Bft) 100,00 %
21.01.2021 12:42 7,8 C 7,8 C 5,0 C 80 % 994,9 hPa 0,0 l/m 0 min 0 min 139 W/m 19,3 km/h (3 Bft) 100,00 %
21.01.2021 12:44 7,8 C 7,8 C 5,0 C 79 % 994,9 hPa 0,0 l/m 0 min 0 min 139 W/m 16,1 km/h (3 Bft) 100,00 %
21.01.2021 12:46 7,8 C 7,8 C 5,0 C 79 % 994,8 hPa 0,0 l/m 0 min 0 min 126 W/m 29,0 km/h (5 Bft) 100,00 %
21.01.2021 12:48 7,8 C 7,8 C 5,0 C 79 % 994,9 hPa 0,0 l/m 0 min 0 min 118 W/m 3,2 km/h (1 Bft) 100,00 %
21.01.2021 12:50 7,8 C 7,8 C 5,0 C 79 % 994,8 hPa 0,0 l/m 0 min 0 min 116 W/m 25,7 km/h (4 Bft) 100,00 %
21.01.2021 12:52 7,8 C 7,2 C 4,5 C 79 % 994,8 hPa 0,0 l/m 0 min 0 min 106 W/m 29,0 km/h (5 Bft) 97,87 %
21.01.2021 12:54 7,8 C 7,8 C 5,0 C 79 % 994,7 hPa 0,0 l/m 0 min 0 min 107 W/m 16,1 km/h (3 Bft) 97,87 %
21.01.2021 12:56 7,8 C 7,2 C 4,5 C 79 % 994,7 hPa 0,0 l/m 0 min 0 min 117 W/m 29,0 km/h (5 Bft) 100,00 %
21.01.2021 12:58 7,8 C 7,8 C 4,5 C 79 % 994,8 hPa 0,0 l/m 0 min 0 min 114 W/m 3,2 km/h (1 Bft) 100,00 %
21.01.2021 13:00 7,8 C 7,2 C 4,5 C 79 % 994,6 hPa 0,0 l/m 0 min 0 min 115 W/m 25,7 km/h (4 Bft) 100,00 %
21.01.2021 13:02 7,8 C 7,2 C 4,5 C 79 % 994,8 hPa 0,0 l/m 0 min 0 min 117 W/m 29,0 km/h (5 Bft) 100,00 %
21.01.2021 13:04 7,8 C 7,8 C 5,0 C 79 % 994,6 hPa 0,0 l/m 0 min 0 min 116 W/m 35,4 km/h (5 Bft) 97,87 %
21.01.2021 13:06 7,8 C 7,8 C 5,0 C 79 % 994,7 hPa 0,0 l/m 0 min 0 min 126 W/m 25,7 km/h (4 Bft) 97,87 %
21.01.2021 13:08 7,8 C 7,8 C 5,0 C 79 % 994,6 hPa 0,0 l/m 0 min 0 min 134 W/m 3,2 km/h (1 Bft) 100,00 %
21.01.2021 13:10 7,9 C 7,8 C 5,0 C 79 % 994,6 hPa 0,0 l/m 0 min 0 min 139 W/m 6,4 km/h (2 Bft) 95,74 %
21.01.2021 13:12 7,9 C 7,8 C 5,0 C 79 % 994,5 hPa 0,0 l/m 0 min 0 min 126 W/m 22,5 km/h (4 Bft) 95,65 %
21.01.2021 13:14 7,9 C 7,8 C 5,0 C 79 % 994,4 hPa 0,0 l/m 0 min 0 min 137 W/m 6,4 km/h (2 Bft) 97,87 %
21.01.2021 13:16 7,9 C 7,8 C 5,0 C 79 % 994,4 hPa 0,0 l/m 0 min 0 min 149 W/m 29,0 km/h (5 Bft) 95,74 %
21.01.2021 13:18 7,9 C 7,8 C 5,0 C 79 % 994,3 hPa 0,0 l/m 0 min 0 min 172 W/m 3,2 km/h (1 Bft) 95,74 %
21.01.2021 13:20 7,9 C 8,3 C 5,0 C 79 % 994,4 hPa 0,0 l/m 0 min 0 min 177 W/m 16,1 km/h (3 Bft) 95,74 %
21.01.2021 13:22 8,0 C 8,3 C 5,6 C 79 % 994,3 hPa 0,0 l/m 0 min 0 min 175 W/m 6,4 km/h (2 Bft) 95,74 %
21.01.2021 13:24 8,0 C 8,3 C 5,6 C 79 % 994,4 hPa 0,0 l/m 0 min 0 min 124 W/m 9,7 km/h (2 Bft) 95,65 %
21.01.2021 13:26 8,0 C 7,8 C 5,0 C 79 % 994,3 hPa 0,0 l/m 0 min 0 min 123 W/m 22,5 km/h (4 Bft) 95,74 %
21.01.2021 13:28 8,0 C 7,8 C 5,0 C 78 % 994,3 hPa 0,0 l/m 0 min 0 min 128 W/m 12,9 km/h (3 Bft) 93,62 %
21.01.2021 13:30 8,1 C 7,8 C 5,0 C 78 % 994,2 hPa 0,0 l/m 0 min 0 min 143 W/m 41,8 km/h (6 Bft) 93,62 %
21.01.2021 13:32 8,1 C 7,8 C 5,0 C 78 % 994,3 hPa 0,0 l/m 0 min 0 min 142 W/m 6,4 km/h (2 Bft) 91,49 %
21.01.2021 13:34 8,1 C 7,8 C 5,0 C 78 % 994,3 hPa 0,0 l/m 0 min 0 min 134 W/m 48,3 km/h (6 Bft) 93,62 %
21.01.2021 13:36 8,1 C 7,8 C 5,0 C 78 % 994,2 hPa 0,0 l/m 0 min 0 min 128 W/m 3,2 km/h (1 Bft) 93,48 %
21.01.2021 13:38 8,1 C 7,8 C 5,0 C 78 % 994,2 hPa 0,0 l/m 0 min 0 min 115 W/m 29,0 km/h (5 Bft) 91,49 %
21.01.2021 13:40 8,1 C 7,8 C 5,0 C 78 % 994,1 hPa 0,0 l/m 0 min 0 min 120 W/m 16,1 km/h (3 Bft) 93,62 %
21.01.2021 13:42 8,1 C 7,8 C 5,0 C 78 % 994,2 hPa 0,0 l/m 0 min 0 min 119 W/m 32,2 km/h (5 Bft) 93,88 %
21.01.2021 13:44 8,2 C 7,8 C 5,0 C 77 % 994,1 hPa 0,0 l/m 0 min 0 min 114 W/m 3,2 km/h (1 Bft) 91,49 %
21.01.2021 13:46 8,2 C 7,8 C 5,0 C 77 % 994,0 hPa 0,0 l/m 0 min 0 min 113 W/m 12,9 km/h (3 Bft) 91,30 %
21.01.2021 13:48 8,2 C 7,8 C 5,0 C 77 % 994,0 hPa 0,0 l/m 0 min 0 min 108 W/m 9,7 km/h (2 Bft) 91,49 %
21.01.2021 13:50 8,2 C 7,8 C 5,0 C 77 % 994,1 hPa 0,0 l/m 0 min 0 min 101 W/m 19,3 km/h (3 Bft) 93,62 %
21.01.2021 13:52 8,2 C 7,8 C 5,0 C 77 % 994,1 hPa 0,0 l/m 0 min 0 min 110 W/m 38,6 km/h (5 Bft) 91,49 %
21.01.2021 13:54 8,3 C 7,8 C 5,0 C 77 % 994,1 hPa 0,0 l/m 0 min 0 min 99 W/m 38,6 km/h (5 Bft) 93,62 %
21.01.2021 13:56 8,3 C 7,8 C 5,0 C 77 % 994,1 hPa 0,0 l/m 0 min 0 min 85 W/m 12,9 km/h (3 Bft) 95,74 %
21.01.2021 13:58 8,3 C 7,8 C 5,0 C 77 % 994,1 hPa 0,0 l/m 0 min 0 min 97 W/m 22,5 km/h (4 Bft) 95,65 %
21.01.2021 14:00 8,3 C 7,8 C 5,0 C 77 % 994,0 hPa 0,0 l/m 0 min 0 min 85 W/m 16,1 km/h (3 Bft) 95,74 %
21.01.2021 14:02 8,3 C 7,8 C 5,0 C 77 % 994,0 hPa 0,0 l/m 0 min 0 min 91 W/m 0,0 km/h (0 Bft) 93,62 %
21.01.2021 14:04 8,3 C 7,8 C 5,0 C 77 % 994,0 hPa 0,2 l/m 0 min 0 min 97 W/m 16,1 km/h (3 Bft) 93,62 %
21.01.2021 14:06 8,3 C 7,8 C 4,5 C 77 % 994,0 hPa 0,0 l/m 0 min 0 min 88 W/m 32,2 km/h (5 Bft) 95,74 %
21.01.2021 14:08 8,3 C 7,8 C 5,0 C 77 % 993,9 hPa 0,0 l/m 0 min 0 min 83 W/m 3,2 km/h (1 Bft) 95,74 %
21.01.2021 14:10 8,3 C 7,8 C 4,5 C 77 % 994,0 hPa 0,0 l/m 0 min 0 min 80 W/m 6,4 km/h (2 Bft) 95,74 %
21.01.2021 14:12 8,3 C 7,8 C 4,5 C 77 % 993,9 hPa 0,0 l/m 0 min 0 min 77 W/m 3,2 km/h (1 Bft) 97,83 %
21.01.2021 14:14 8,3 C 7,8 C 4,5 C 77 % 993,9 hPa 0,0 l/m 0 min 0 min 75 W/m 6,4 km/h (2 Bft) 95,74 %
21.01.2021 14:16 8,3 C 7,8 C 4,5 C 77 % 993,8 hPa 0,0 l/m 0 min 0 min 66 W/m 16,1 km/h (3 Bft) 97,87 %
21.01.2021 14:18 8,3 C 7,8 C 4,5 C 77 % 993,8 hPa 0,0 l/m 0 min 0 min 73 W/m 6,4 km/h (2 Bft) 95,74 %
21.01.2021 14:20 8,3 C 7,8 C 4,5 C 77 % 993,8 hPa 0,0 l/m 0 min 0 min 77 W/m 9,7 km/h (2 Bft) 97,87 %
21.01.2021 14:22 8,3 C 7,8 C 4,5 C 77 % 993,9 hPa 0,0 l/m 0 min 0 min 76 W/m 16,1 km/h (3 Bft) 100,00 %
21.01.2021 14:24 8,3 C 7,8 C 4,5 C 77 % 993,8 hPa 0,0 l/m 0 min 0 min 80 W/m 29,0 km/h (5 Bft) 100,00 %
21.01.2021 14:26 8,3 C 7,8 C 4,5 C 77 % 993,9 hPa 0,0 l/m 0 min 0 min 86 W/m 3,2 km/h (1 Bft) 100,00 %
21.01.2021 14:28 8,3 C 7,8 C 4,5 C 77 % 993,8 hPa 0,0 l/m 0 min 0 min 86 W/m 19,3 km/h (3 Bft) 100,00 %
21.01.2021 14:30 8,3 C 7,8 C 5,0 C 77 % 993,8 hPa 0,0 l/m 0 min 0 min 93 W/m 0,0 km/h (0 Bft) 100,00 %
21.01.2021 14:32 8,3 C 7,8 C 5,0 C 77 % 993,8 hPa 0,0 l/m 0 min 0 min 101 W/m 0,0 km/h (0 Bft) 100,00 %
21.01.2021 14:34 8,3 C 7,8 C 5,0 C 77 % 993,8 hPa 0,0 l/m 0 min 0 min 98 W/m 0,0 km/h (0 Bft) 100,00 %
21.01.2021 14:36 8,3 C 7,8 C 5,0 C 77 % 993,8 hPa 0,0 l/m 0 min 0 min 97 W/m 0,0 km/h (0 Bft) 100,00 %
21.01.2021 14:38 8,3 C 7,8 C 5,0 C 77 % 993,9 hPa 0,0 l/m 0 min 0 min 97 W/m 3,2 km/h (1 Bft) 100,00 %
21.01.2021 14:40 8,3 C 7,8 C 5,0 C 77 % 993,8 hPa 0,0 l/m 0 min 0 min 97 W/m 22,5 km/h (4 Bft) 100,00 %
21.01.2021 14:42 8,3 C 7,8 C 5,0 C 77 % 993,8 hPa 0,0 l/m 0 min 0 min 103 W/m 12,9 km/h (3 Bft) 100,00 %
21.01.2021 14:44 8,3 C 8,3 C 5,0 C 77 % 993,8 hPa 0,0 l/m 0 min 0 min 106 W/m 0,0 km/h (0 Bft) 100,00 %
21.01.2021 14:46 8,3 C 7,8 C 5,0 C 77 % 993,8 hPa 0,0 l/m 0 min 0 min 102 W/m 12,9 km/h (3 Bft) 100,00 %
21.01.2021 14:48 8,3 C 7,8 C 5,0 C 77 % 993,8 hPa 0,0 l/m 0 min 0 min 91 W/m 6,4 km/h (2 Bft) 100,00 %
21.01.2021 14:50 8,3 C 7,8 C 5,0 C 77 % 993,8 hPa 0,0 l/m 0 min 0 min 92 W/m 29,0 km/h (5 Bft) 97,87 %
21.01.2021 14:52 8,3 C 7,8 C 5,0 C 77 % 993,8 hPa 0,0 l/m 0 min 0 min 92 W/m 3,2 km/h (1 Bft) 100,00 %
21.01.2021 14:54 8,3 C 7,8 C 5,0 C 77 % 993,8 hPa 0,0 l/m 0 min 0 min 93 W/m 35,4 km/h (5 Bft) 100,00 %
21.01.2021 14:56 8,3 C 7,8 C 5,0 C 76 % 993,8 hPa 0,0 l/m 0 min 0 min 102 W/m 6,4 km/h (2 Bft) 100,00 %
21.01.2021 14:58 8,4 C 8,3 C 5,0 C 76 % 993,8 hPa 0,0 l/m 0 min 0 min 105 W/m 29,0 km/h (5 Bft) 100,00 %
21.01.2021 15:00 8,3 C 8,3 C 5,0 C 76 % 993,8 hPa 0,0 l/m 0 min 0 min 104 W/m 3,2 km/h (1 Bft) 100,00 %
21.01.2021 15:02 8,4 C 8,3 C 5,0 C 76 % 993,7 hPa 0,0 l/m 0 min 0 min 105 W/m 12,9 km/h (3 Bft) 100,00 %
21.01.2021 15:04 8,4 C 8,3 C 5,0 C 76 % 993,7 hPa 0,0 l/m 0 min 0 min 102 W/m 25,7 km/h (4 Bft) 100,00 %
21.01.2021 15:06 8,4 C 8,3 C 5,0 C 76 % 993,8 hPa 0,0 l/m 0 min 0 min 114 W/m 38,6 km/h (5 Bft) 100,00 %
21.01.2021 15:08 8,4 C 8,3 C 5,6 C 76 % 993,8 hPa 0,0 l/m 2 min 0 min 139 W/m 22,5 km/h (4 Bft) 97,87 %
21.01.2021 15:10 8,4 C 8,3 C 5,6 C 76 % 993,7 hPa 0,0 l/m 2 min 0 min 135 W/m 3,2 km/h (1 Bft) 100,00 %
21.01.2021 15:12 8,4 C 8,9 C 5,6 C 76 % 993,8 hPa 0,0 l/m 2 min 0 min 142 W/m 3,2 km/h (1 Bft) 100,00 %
21.01.2021 15:14 8,4 C 8,3 C 5,6 C 76 % 993,8 hPa 0,0 l/m 2 min 0 min 123 W/m 0,0 km/h (0 Bft) 100,00 %
21.01.2021 15:16 8,4 C 8,9 C 5,6 C 76 % 993,8 hPa 0,0 l/m 2 min 0 min 125 W/m 3,2 km/h (1 Bft) 100,00 %
21.01.2021 15:18 8,5 C 8,9 C 5,6 C 76 % 993,8 hPa 0,0 l/m 2 min 0 min 131 W/m 25,7 km/h (4 Bft) 100,00 %
21.01.2021 15:20 8,5 C 8,3 C 5,6 C 76 % 993,8 hPa 0,0 l/m 2 min 0 min 120 W/m 16,1 km/h (3 Bft) 100,00 %
21.01.2021 15:22 8,5 C 8,3 C 5,6 C 76 % 993,8 hPa 0,0 l/m 0 min 0 min 104 W/m 0,0 km/h (0 Bft) 100,00 %
21.01.2021 15:24 8,5 C 8,9 C 5,6 C 76 % 993,9 hPa 0,0 l/m 2 min 0 min 135 W/m 0,0 km/h (0 Bft) 100,00 %
21.01.2021 15:26 8,5 C 8,9 C 5,6 C 76 % 993,9 hPa 0,0 l/m 2 min 0 min 131 W/m 0,0 km/h (0 Bft) 100,00 %
21.01.2021 15:28 8,5 C 8,9 C 6,2 C 76 % 993,8 hPa 0,0 l/m 2 min 0 min 138 W/m 0,0 km/h (0 Bft) 100,00 %
21.01.2021 15:30 8,6 C 8,9 C 6,2 C 76 % 993,8 hPa 0,0 l/m 2 min 0 min 126 W/m 25,7 km/h (4 Bft) 100,00 %
21.01.2021 15:32 8,6 C 8,9 C 5,6 C 75 % 993,8 hPa 0,0 l/m 2 min 0 min 109 W/m 35,4 km/h (5 Bft) 100,00 %
21.01.2021 15:34 8,6 C 8,9 C 5,6 C 75 % 993,8 hPa 0,0 l/m 2 min 0 min 106 W/m 19,3 km/h (3 Bft) 100,00 %
21.01.2021 15:36 8,6 C 8,9 C 6,2 C 75 % 993,8 hPa 0,0 l/m 2 min 0 min 119 W/m 25,7 km/h (4 Bft) 97,87 %
21.01.2021 15:38 8,6 C 8,9 C 6,2 C 75 % 993,8 hPa 0,0 l/m 2 min 0 min 110 W/m 16,1 km/h (3 Bft) 100,00 %
21.01.2021 15:40 8,6 C 8,9 C 6,2 C 75 % 993,8 hPa 0,0 l/m 0 min 0 min 87 W/m 0,0 km/h (0 Bft) 100,00 %
21.01.2021 15:42 8,6 C 8,3 C 5,6 C 75 % 993,9 hPa 0,0 l/m 0 min 0 min 71 W/m 12,9 km/h (3 Bft) 100,00 %
21.01.2021 15:44 8,6 C 8,3 C 5,6 C 75 % 993,8 hPa 0,0 l/m 0 min 0 min 62 W/m 16,1 km/h (3 Bft) 100,00 %
21.01.2021 15:46 8,6 C 8,3 C 5,0 C 75 % 993,9 hPa 0,0 l/m 0 min 0 min 55 W/m 0,0 km/h (0 Bft) 97,83 %
21.01.2021 15:48 8,6 C 8,3 C 5,0 C 75 % 993,9 hPa 0,0 l/m 0 min 0 min 50 W/m 25,7 km/h (4 Bft) 100,00 %
21.01.2021 15:50 8,6 C 8,3 C 4,5 C 75 % 994,0 hPa 0,0 l/m 0 min 0 min 48 W/m 0,0 km/h (0 Bft) 95,74 %
21.01.2021 15:52 8,6 C 7,8 C 4,5 C 75 % 993,9 hPa 0,0 l/m 0 min 0 min 45 W/m 29,0 km/h (5 Bft) 95,74 %
21.01.2021 15:54 8,5 C 7,8 C 4,5 C 75 % 993,9 hPa 0,0 l/m 0 min 0 min 44 W/m 0,0 km/h (0 Bft) 95,74 %
21.01.2021 15:56 8,5 C 7,8 C 4,5 C 75 % 993,8 hPa 0,0 l/m 0 min 0 min 42 W/m 3,2 km/h (1 Bft) 95,65 %
21.01.2021 15:58 8,5 C 7,8 C 4,5 C 75 % 993,8 hPa 0,0 l/m 0 min 0 min 42 W/m 0,0 km/h (0 Bft) 97,87 %
21.01.2021 16:00 8,5 C 7,8 C 4,5 C 75 % 993,8 hPa 0,0 l/m 0 min 0 min 42 W/m 0,0 km/h (0 Bft) 51,16 %
21.01.2021 16:03 8,4 C 7,8 C 4,5 C 75 % 993,8 hPa 0,0 l/m 0 min 0 min 41 W/m 38,6 km/h (5 Bft) 97,14 %
21.01.2021 16:04 8,4 C 7,8 C 4,5 C 76 % 993,8 hPa 0,0 l/m 0 min 0 min 40 W/m 3,2 km/h (1 Bft) 95,83 %
21.01.2021 16:06 8,4 C 7,8 C 3,9 C 76 % 993,8 hPa 0,0 l/m 0 min 0 min 40 W/m 25,7 km/h (4 Bft) 97,87 %
21.01.2021 16:08 8,4 C 7,8 C 3,9 C 76 % 993,8 hPa 0,0 l/m 0 min 0 min 39 W/m 22,5 km/h (4 Bft) 95,65 %
21.01.2021 16:10 8,3 C 7,8 C 3,9 C 76 % 993,9 hPa 0,0 l/m 0 min 0 min 37 W/m 3,2 km/h (1 Bft) 97,87 %
21.01.2021 16:12 8,3 C 7,8 C 3,9 C 76 % 993,8 hPa 0,0 l/m 0 min 0 min 35 W/m 32,2 km/h (5 Bft) 97,87 %
21.01.2021 16:14 8,3 C 7,8 C 3,9 C 76 % 993,8 hPa 0,0 l/m 0 min 0 min 35 W/m 45,1 km/h (6 Bft) 97,87 %
21.01.2021 16:16 8,3 C 7,8 C 3,9 C 76 % 993,7 hPa 0,0 l/m 0 min 0 min 33 W/m 16,1 km/h (3 Bft) 93,62 %
21.01.2021 16:18 8,3 C 7,8 C 3,9 C 76 % 993,7 hPa 0,0 l/m 0 min 0 min 33 W/m 3,2 km/h (1 Bft) 97,87 %
21.01.2021 16:20 8,3 C 7,8 C 3,9 C 76 % 993,7 hPa 0,0 l/m 0 min 0 min 32 W/m 12,9 km/h (3 Bft) 97,83 %
21.01.2021 16:22 8,3 C 7,8 C 3,9 C 76 % 993,7 hPa 0,0 l/m 0 min 0 min 30 W/m 16,1 km/h (3 Bft) 95,74 %
21.01.2021 16:24 8,3 C 7,8 C 3,9 C 76 % 993,6 hPa 0,0 l/m 0 min 0 min 28 W/m 0,0 km/h (0 Bft) 97,87 %
21.01.2021 16:26 8,3 C 7,8 C 3,9 C 76 % 993,6 hPa 0,0 l/m 0 min 0 min 27 W/m 3,2 km/h (1 Bft) 97,87 %
21.01.2021 16:28 8,3 C 7,8 C 3,9 C 76 % 993,6 hPa 0,0 l/m 0 min 0 min 24 W/m 3,2 km/h (1 Bft) 95,74 %
21.01.2021 16:30 8,2 C 7,8 C 3,9 C 76 % 993,6 hPa 0,0 l/m 0 min 0 min 22 W/m 6,4 km/h (2 Bft) 93,62 %
21.01.2021 16:32 8,2 C 7,8 C 3,9 C 76 % 993,6 hPa 0,0 l/m 0 min 0 min 19 W/m 6,4 km/h (2 Bft) 95,65 %
21.01.2021 16:34 8,2 C 7,8 C 3,9 C 76 % 993,6 hPa 0,0 l/m 0 min 0 min 16 W/m 12,9 km/h (3 Bft) 93,62 %
21.01.2021 16:36 8,2 C 7,8 C 3,9 C 77 % 993,5 hPa 0,0 l/m 0 min 0 min 14 W/m 16,1 km/h (3 Bft) 93,62 %
21.01.2021 16:38 8,2 C 7,8 C 3,9 C 77 % 993,6 hPa 0,0 l/m 0 min 0 min 12 W/m 0,0 km/h (0 Bft) 97,87 %
21.01.2021 16:40 8,1 C 7,8 C 3,9 C 77 % 993,5 hPa 0,0 l/m 0 min 0 min 12 W/m 3,2 km/h (1 Bft) 95,74 %
21.01.2021 16:42 8,1 C 7,2 C 3,9 C 77 % 993,6 hPa 0,0 l/m 0 min 0 min 11 W/m 0,0 km/h (0 Bft) 97,87 %
21.01.2021 16:44 8,1 C 7,2 C 3,9 C 77 % 993,4 hPa 0,0 l/m 0 min 0 min 10 W/m 0,0 km/h (0 Bft) 97,83 %
21.01.2021 16:46 8,1 C 7,2 C 3,9 C 77 % 993,4 hPa 0,0 l/m 0 min 0 min 9 W/m 3,2 km/h (1 Bft) 95,45 %
21.01.2021 16:48 8,1 C 7,2 C 3,9 C 77 % 993,4 hPa 0,0 l/m 0 min 0 min 7 W/m 12,9 km/h (3 Bft) 95,74 %
21.01.2021 16:50 8,1 C 7,2 C 3,9 C 77 % 993,3 hPa 0,0 l/m 0 min 0 min 6 W/m 16,1 km/h (3 Bft) 91,49 %
21.01.2021 16:52 8,1 C 7,2 C 3,9 C 77 % 993,3 hPa 0,0 l/m 0 min 0 min 5 W/m 6,4 km/h (2 Bft) 93,62 %
21.01.2021 16:54 8,1 C 7,8 C 3,9 C 77 % 993,3 hPa 0,0 l/m 0 min 0 min 0 W/m 29,0 km/h (5 Bft) 95,74 %
21.01.2021 16:56 8,1 C 7,8 C 3,9 C 77 % 993,3 hPa 0,0 l/m 0 min 0 min 0 W/m 6,4 km/h (2 Bft) 95,65 %
21.01.2021 16:58 8,1 C 7,2 C 3,9 C 77 % 993,3 hPa 0,0 l/m 0 min 0 min 0 W/m 0,0 km/h (0 Bft) 95,74 %
21.01.2021 17:00 8,1 C 7,2 C 3,9 C 77 % 993,3 hPa 0,0 l/m 0 min 0 min 0 W/m 0,0 km/h (0 Bft) 95,74 %
21.01.2021 17:02 8,1 C 7,2 C 3,9 C 77 % 993,2 hPa 0,0 l/m 0 min 0 min 0 W/m 0,0 km/h (0 Bft) 95,74 %
21.01.2021 17:04 8,1 C 7,2 C 3,9 C 77 % 993,2 hPa 0,0 l/m 0 min 0 min 0 W/m 0,0 km/h (0 Bft) 95,74 %
21.01.2021 17:06 8,1 C 7,2 C 3,9 C 77 % 993,3 hPa 0,0 l/m 0 min 0 min 0 W/m 22,5 km/h (4 Bft) 95,74 %
21.01.2021 17:08 8,1 C 7,2 C 3,9 C 77 % 993,2 hPa 0,0 l/m 0 min 0 min 0 W/m 6,4 km/h (2 Bft) 93,10 %
21.01.2021 17:10 8,1 C 7,8 C 3,9 C 77 % 993,2 hPa 0,0 l/m 0 min 0 min 0 W/m 25,7 km/h (4 Bft) 94,29 %
21.01.2021 17:12 8,1 C 7,2 C 3,9 C 77 % 993,2 hPa 0,0 l/m 0 min 0 min 0 W/m 6,4 km/h (2 Bft) 95,74 %
21.01.2021 17:14 8,1 C 7,2 C 3,9 C 77 % 993,2 hPa 0,0 l/m 0 min 0 min 0 W/m 3,2 km/h (1 Bft) 95,74 %
21.01.2021 17:16 8,1 C 7,2 C 3,9 C 77 % 993,2 hPa 0,0 l/m 0 min 0 min 0 W/m 3,2 km/h (1 Bft) 97,87 %
21.01.2021 17:18 8,1 C 7,2 C 3,9 C 77 % 993,1 hPa 0,0 l/m 0 min 0 min 0 W/m 3,2 km/h (1 Bft) 97,87 %
21.01.2021 17:20 8,1 C 7,2 C 3,9 C 77 % 993,2 hPa 0,0 l/m 0 min 0 min 0 W/m 6,4 km/h (2 Bft) 97,83 %
21.01.2021 17:22 8,0 C 7,2 C 3,9 C 77 % 993,2 hPa 0,0 l/m 0 min 0 min 0 W/m 3,2 km/h (1 Bft) 97,87 %
21.01.2021 17:24 8,0 C 7,2 C 3,9 C 77 % 993,1 hPa 0,0 l/m 0 min 0 min 0 W/m 3,2 km/h (1 Bft) 97,87 %
21.01.2021 17:26 8,0 C 7,2 C 3,9 C 78 % 993,1 hPa 0,0 l/m 0 min 0 min 0 W/m 6,4 km/h (2 Bft) 98,00 %
21.01.2021 17:28 8,0 C 7,2 C 3,4 C 78 % 993,1 hPa 0,0 l/m 0 min 0 min 0 W/m 3,2 km/h (1 Bft) 97,87 %
21.01.2021 17:30 8,0 C 7,2 C 3,4 C 78 % 993,0 hPa 0,0 l/m 0 min 0 min 0 W/m 3,2 km/h (1 Bft) 97,87 %
21.01.2021 17:32 8,0 C 7,2 C 3,4 C 78 % 993,0 hPa 0,0 l/m 0 min 0 min 0 W/m 3,2 km/h (1 Bft) 97,87 %
21.01.2021 17:34 8,0 C 7,2 C 3,4 C 78 % 993,1 hPa 0,0 l/m 0 min 0 min 0 W/m 0,0 km/h (0 Bft) 97,87 %
21.01.2021 17:36 8,0 C 7,2 C 3,4 C 78 % 993,0 hPa 0,0 l/m 0 min 0 min 0 W/m 0,0 km/h (0 Bft) 97,87 %
21.01.2021 17:38 8,0 C 7,2 C 3,4 C 78 % 993,0 hPa 0,0 l/m 0 min 0 min 0 W/m 3,2 km/h (1 Bft) 97,87 %
21.01.2021 17:40 8,0 C 7,2 C 3,4 C 78 % 992,9 hPa 0,0 l/m 0 min 0 min 0 W/m 0,0 km/h (0 Bft) 97,87 %
21.01.2021 17:42 8,0 C 7,2 C 3,4 C 78 % 993,0 hPa 0,0 l/m 0 min 0 min 0 W/m 6,4 km/h (2 Bft) 97,83 %
21.01.2021 17:44 8,0 C 7,2 C 3,4 C 78 % 992,9 hPa 0,0 l/m 0 min 0 min 0 W/m 3,2 km/h (1 Bft) 97,87 %
21.01.2021 17:46 7,9 C 7,2 C 3,4 C 78 % 992,8 hPa 0,0 l/m 0 min 0 min 0 W/m 0,0 km/h (0 Bft) 97,87 %
21.01.2021 17:48 7,9 C 7,2 C 3,4 C 78 % 992,8 hPa 0,0 l/m 0 min 0 min 0 W/m 6,4 km/h (2 Bft) 97,87 %
21.01.2021 17:50 7,9 C 7,2 C 3,4 C 78 % 992,8 hPa 0,0 l/m 0 min 0 min 0 W/m 3,2 km/h (1 Bft) 97,87 %
21.01.2021 17:52 7,9 C 7,2 C 3,4 C 79 % 992,8 hPa 0,0 l/m 0 min 0 min 0 W/m 3,2 km/h (1 Bft) 100,00 %
21.01.2021 17:54 7,9 C 7,2 C 3,4 C 79 % 992,7 hPa 0,0 l/m 0 min 0 min 0 W/m 3,2 km/h (1 Bft) 100,00 %
21.01.2021 17:56 7,9 C 7,2 C 3,4 C 79 % 992,7 hPa 0,0 l/m 0 min 0 min 0 W/m 0,0 km/h (0 Bft) 95,74 %
21.01.2021 17:58 7,9 C 7,2 C 3,4 C 79 % 992,7 hPa 0,0 l/m 0 min 0 min 0 W/m 3,2 km/h (1 Bft) 100,00 %
21.01.2021 18:00 7,9 C 7,2 C 3,4 C 79 % 992,6 hPa 0,0 l/m 0 min 0 min 0 W/m 3,2 km/h (1 Bft) 100,00 %
21.01.2021 18:02 7,9 C 7,2 C 3,4 C 79 % 992,6 hPa 0,0 l/m 0 min 0 min 0 W/m 3,2 km/h (1 Bft) 97,87 %
21.01.2021 18:04 7,9 C 7,2 C 3,4 C 79 % 992,5 hPa 0,0 l/m 0 min 0 min 0 W/m 3,2 km/h (1 Bft) 97,87 %
21.01.2021 18:06 7,9 C 7,2 C 3,4 C 79 % 992,5 hPa 0,0 l/m 0 min 0 min 0 W/m 3,2 km/h (1 Bft) 100,00 %
21.01.2021 18:08 7,9 C 7,2 C 3,4 C 79 % 992,4 hPa 0,0 l/m 0 min 0 min 0 W/m 3,2 km/h (1 Bft) 97,87 %
21.01.2021 18:10 7,9 C 7,2 C 3,4 C 79 % 992,4 hPa 0,0 l/m 0 min 0 min 0 W/m 3,2 km/h (1 Bft) 100,00 %
21.01.2021 18:12 7,9 C 7,2 C 3,4 C 79 % 992,4 hPa 0,0 l/m 0 min 0 min 0 W/m 0,0 km/h (0 Bft) 97,87 %
21.01.2021 18:14 7,9 C 7,2 C 3,4 C 79 % 992,4 hPa 0,0 l/m 0 min 0 min 0 W/m 3,2 km/h (1 Bft) 100,00 %
21.01.2021 18:16 7,9 C 7,2 C 3,4 C 79 % 992,4 hPa 0,0 l/m 0 min 0 min 0 W/m 3,2 km/h (1 Bft) 100,00 %
21.01.2021 18:18 7,9 C 7,2 C 3,4 C 79 % 992,4 hPa 0,0 l/m 0 min 0 min 0 W/m 3,2 km/h (1 Bft) 97,83 %
21.01.2021 18:20 7,9 C 7,2 C 3,9 C 79 % 992,4 hPa 0,0 l/m 0 min 0 min 0 W/m 6,4 km/h (2 Bft) 100,00 %
21.01.2021 18:22 7,9 C 7,2 C 3,9 C 79 % 992,4 hPa 0,0 l/m 0 min 0 min 0 W/m 6,4 km/h (2 Bft) 100,00 %
21.01.2021 18:24 7,9 C 7,2 C 3,9 C 79 % 992,3 hPa 0,0 l/m 0 min 0 min 0 W/m 6,4 km/h (2 Bft) 100,00 %
21.01.2021 18:26 7,9 C 7,2 C 3,4 C 79 % 992,3 hPa 0,0 l/m 0 min 0 min 0 W/m 3,2 km/h (1 Bft) 100,00 %
21.01.2021 18:28 7,9 C 7,2 C 3,4 C 79 % 992,3 hPa 0,0 l/m 0 min 0 min 0 W/m 3,2 km/h (1 Bft) 100,00 %
21.01.2021 18:30 7,9 C 7,2 C 3,9 C 79 % 992,3 hPa 0,0 l/m 0 min 0 min 0 W/m 0,0 km/h (0 Bft) 100,00 %
21.01.2021 18:32 7,9 C 7,2 C 3,9 C 79 % 992,2 hPa 0,0 l/m 0 min 0 min 0 W/m 3,2 km/h (1 Bft) 100,00 %
21.01.2021 18:34 7,9 C 7,2 C 3,9 C 79 % 992,2 hPa 0,0 l/m 0 min 0 min 0 W/m 3,2 km/h (1 Bft) 100,00 %
21.01.2021 18:36 7,9 C 7,2 C 3,9 C 79 % 992,2 hPa 0,0 l/m 0 min 0 min 0 W/m 3,2 km/h (1 Bft) 100,00 %
21.01.2021 18:38 7,9 C 7,8 C 3,9 C 79 % 992,2 hPa 0,0 l/m 0 min 0 min 0 W/m 6,4 km/h (2 Bft) 97,87 %
21.01.2021 18:40 7,9 C 7,8 C 3,9 C 78 % 992,1 hPa 0,0 l/m 0 min 0 min 0 W/m 0,0 km/h (0 Bft) 95,74 %
21.01.2021 18:42 8,0 C 7,8 C 3,9 C 78 % 992,0 hPa 0,0 l/m 0 min 0 min 0 W/m 0,0 km/h (0 Bft) 97,87 %
21.01.2021 18:44 8,0 C 7,2 C 3,9 C 78 % 992,0 hPa 0,0 l/m 0 min 0 min 0 W/m 3,2 km/h (1 Bft) 97,87 %
21.01.2021 18:46 8,0 C 7,2 C 3,4 C 78 % 991,9 hPa 0,0 l/m 0 min 0 min 0 W/m 0,0 km/h (0 Bft) 97,87 %
21.01.2021 18:48 8,0 C 7,2 C 3,9 C 78 % 991,9 hPa 0,0 l/m 0 min 0 min 0 W/m 0,0 km/h (0 Bft) 97,83 %
21.01.2021 18:50 8,0 C 7,8 C 3,9 C 78 % 991,9 hPa 0,0 l/m 0 min 0 min 0 W/m 9,7 km/h (2 Bft) 97,87 %
21.01.2021 18:52 8,1 C 7,8 C 3,9 C 78 % 991,8 hPa 0,0 l/m 0 min 0 min 0 W/m 6,4 km/h (2 Bft) 97,83 %
21.01.2021 18:54 8,1 C 7,2 C 3,4 C 78 % 991,8 hPa 0,0 l/m 0 min 2 min 0 W/m 0,0 km/h (0 Bft) 95,74 %
21.01.2021 18:56 8,1 C 6,7 C 3,4 C 79 % 991,8 hPa 0,0 l/m 0 min 2 min 0 W/m 0,0 km/h (0 Bft) 95,74 %
21.01.2021 18:58 8,1 C 6,1 C 2,8 C 79 % 991,7 hPa 0,0 l/m 0 min 2 min 0 W/m 3,2 km/h (1 Bft) 97,87 %
21.01.2021 19:02 8,1 C 5,6 C 2,8 C 80 % 991,6 hPa 0,0 l/m 0 min 4 min 0 W/m 0,0 km/h (0 Bft) 94,55 %
21.01.2021 19:04 8,1 C 5,6 C 2,3 C 81 % 991,6 hPa 0,0 l/m 0 min 2 min 0 W/m 0,0 km/h (0 Bft) 95,74 %
21.01.2021 19:06 8,0 C 5,6 C 2,3 C 81 % 991,5 hPa 0,0 l/m 0 min 2 min 0 W/m 16,1 km/h (3 Bft) 97,87 %
21.01.2021 19:08 8,0 C 5,6 C 2,3 C 82 % 991,4 hPa 0,0 l/m 0 min 2 min 0 W/m 0,0 km/h (0 Bft) 97,87 %
21.01.2021 19:10 8,0 C 5,6 C 2,3 C 82 % 991,4 hPa 0,0 l/m 0 min 2 min 0 W/m 3,2 km/h (1 Bft) 95,65 %
21.01.2021 19:12 7,9 C 5,6 C 2,3 C 82 % 991,3 hPa 0,0 l/m 0 min 2 min 0 W/m 0,0 km/h (0 Bft) 95,74 %
21.01.2021 19:14 7,9 C 5,6 C 2,3 C 83 % 991,2 hPa 0,0 l/m 0 min 2 min 0 W/m 0,0 km/h (0 Bft) 95,74 %
21.01.2021 19:16 7,9 C 5,6 C 2,3 C 83 % 991,2 hPa 0,0 l/m 0 min 2 min 0 W/m 3,2 km/h (1 Bft) 93,62 %
21.01.2021 19:18 7,8 C 5,6 C 2,3 C 83 % 991,0 hPa 0,0 l/m 0 min 2 min 0 W/m 3,2 km/h (1 Bft) 95,74 %
21.01.2021 19:20 7,8 C 5,0 C 2,3 C 84 % 991,0 hPa 0,0 l/m 0 min 2 min 0 W/m 6,4 km/h (2 Bft) 95,74 %
21.01.2021 19:22 7,7 C 5,0 C 2,3 C 84 % 990,9 hPa 0,2 l/m 0 min 2 min 0 W/m 3,2 km/h (1 Bft) 95,65 %
21.01.2021 19:24 7,6 C 5,0 C 2,3 C 84 % 990,9 hPa 0,0 l/m 0 min 2 min 0 W/m 0,0 km/h (0 Bft) 95,74 %
21.01.2021 19:26 7,6 C 5,0 C 2,3 C 85 % 990,8 hPa 0,0 l/m 0 min 2 min 0 W/m 0,0 km/h (0 Bft) 93,62 %
21.01.2021 19:28 7,5 C 5,0 C 2,3 C 85 % 990,8 hPa 0,0 l/m 0 min 2 min 0 W/m 0,0 km/h (0 Bft) 95,74 %
21.01.2021 19:30 7,5 C 5,0 C 2,3 C 85 % 990,7 hPa 0,0 l/m 0 min 2 min 0 W/m 0,0 km/h (0 Bft) 95,74 %
21.01.2021 19:32 7,4 C 5,0 C 2,3 C 86 % 990,7 hPa 0,0 l/m 0 min 2 min 0 W/m 0,0 km/h (0 Bft) 97,87 %
21.01.2021 19:34 7,4 C 5,0 C 2,3 C 86 % 990,6 hPa 0,2 l/m 0 min 2 min 0 W/m 0,0 km/h (0 Bft) 95,65 %
21.01.2021 19:36 7,4 C 5,0 C 2,3 C 86 % 990,5 hPa 0,0 l/m 0 min 2 min 0 W/m 0,0 km/h (0 Bft) 91,49 %
21.01.2021 19:38 7,3 C 5,0 C 2,3 C 87 % 990,6 hPa 0,0 l/m 0 min 2 min 0 W/m 0,0 km/h (0 Bft) 97,87 %
21.01.2021 19:40 7,2 C 5,0 C 2,3 C 87 % 990,5 hPa 0,0 l/m 0 min 2 min 0 W/m 3,2 km/h (1 Bft) 97,87 %
21.01.2021 19:42 7,2 C 5,0 C 1,7 C 87 % 990,4 hPa 0,2 l/m 0 min 2 min 0 W/m 0,0 km/h (0 Bft) 97,87 %
21.01.2021 19:44 7,1 C 5,0 C 1,7 C 87 % 990,3 hPa 0,0 l/m 0 min 2 min 0 W/m 0,0 km/h (0 Bft) 97,83 %
21.01.2021 19:46 7,0 C 5,0 C 1,7 C 88 % 990,3 hPa 0,0 l/m 0 min 2 min 0 W/m 3,2 km/h (1 Bft) 89,36 %
21.01.2021 19:48 7,0 C 5,0 C 1,7 C 88 % 990,2 hPa 0,2 l/m 0 min 2 min 0 W/m 3,2 km/h (1 Bft) 97,87 %
21.01.2021 19:50 6,9 C 5,0 C 1,7 C 89 % 990,1 hPa 0,0 l/m 0 min 2 min 0 W/m 0,0 km/h (0 Bft) 100,00 %
21.01.2021 19:52 6,9 C 5,0 C 1,7 C 89 % 990,1 hPa 0,0 l/m 0 min 2 min 0 W/m 0,0 km/h (0 Bft) 100,00 %
21.01.2021 19:54 6,8 C 5,0 C 1,7 C 89 % 990,1 hPa 0,2 l/m 0 min 2 min 0 W/m 3,2 km/h (1 Bft) 100,00 %
21.01.2021 19:56 6,8 C 5,0 C 1,7 C 89 % 990,0 hPa 0,0 l/m 0 min 2 min 0 W/m 3,2 km/h (1 Bft) 100,00 %
21.01.2021 19:58 6,7 C 5,0 C 2,3 C 90 % 989,9 hPa 0,2 l/m 0 min 2 min 0 W/m 0,0 km/h (0 Bft) 100,00 %
21.01.2021 20:00 6,7 C 5,0 C 2,3 C 90 % 989,8 hPa 0,0 l/m 0 min 2 min 0 W/m 3,2 km/h (1 Bft) 100,00 %
21.01.2021 20:02 6,6 C 5,0 C 2,3 C 90 % 989,8 hPa 0,2 l/m 0 min 2 min 0 W/m 0,0 km/h (0 Bft) 100,00 %
21.01.2021 20:04 6,6 C 5,0 C 2,3 C 90 % 989,7 hPa 0,0 l/m 0 min 2 min 0 W/m 3,2 km/h (1 Bft) 100,00 %
21.01.2021 20:06 6,5 C 5,0 C 2,3 C 91 % 989,5 hPa 0,0 l/m 0 min 2 min 0 W/m 0,0 km/h (0 Bft) 100,00 %
21.01.2021 20:08 6,5 C 5,0 C 2,3 C 91 % 989,5 hPa 0,2 l/m 0 min 2 min 0 W/m 0,0 km/h (0 Bft) 100,00 %
21.01.2021 20:10 6,4 C 5,0 C 2,3 C 91 % 989,3 hPa 0,0 l/m 0 min 2 min 0 W/m 3,2 km/h (1 Bft) 100,00 %
21.01.2021 20:12 6,4 C 5,0 C 2,3 C 91 % 989,3 hPa 0,2 l/m 0 min 2 min 0 W/m 0,0 km/h (0 Bft) 97,87 %
21.01.2021 20:14 6,4 C 5,0 C 2,3 C 92 % 989,2 hPa 0,0 l/m 0 min 2 min 0 W/m 0,0 km/h (0 Bft) 100,00 %
21.01.2021 20:16 6,4 C 5,0 C 2,3 C 92 % 989,1 hPa 0,0 l/m 0 min 2 min 0 W/m 0,0 km/h (0 Bft) 100,00 %
21.01.2021 20:18 6,4 C 5,0 C 2,3 C 92 % 989,0 hPa 0,2 l/m 0 min 2 min 0 W/m 3,2 km/h (1 Bft) 100,00 %
21.01.2021 20:20 6,3 C 5,0 C 2,3 C 92 % 989,1 hPa 0,0 l/m 0 min 2 min 0 W/m 3,2 km/h (1 Bft) 100,00 %
21.01.2021 20:22 6,3 C 5,0 C 2,3 C 93 % 988,9 hPa 0,0 l/m 0 min 2 min 0 W/m 3,2 km/h (1 Bft) 100,00 %
21.01.2021 20:24 6,3 C 5,0 C 2,3 C 93 % 988,8 hPa 0,2 l/m 0 min 2 min 0 W/m 0,0 km/h (0 Bft) 100,00 %
21.01.2021 20:26 6,3 C 5,0 C 2,3 C 93 % 988,7 hPa 0,0 l/m 0 min 2 min 0 W/m 3,2 km/h (1 Bft) 97,87 %
21.01.2021 20:27 6,3 C 5,0 C 2,3 C 93 % 988,6 hPa 0,0 l/m 0 min 1 min 0 W/m 3,2 km/h (1 Bft) 100,00 %
21.01.2021 20:30 6,3 C 5,0 C 2,3 C 94 % 988,6 hPa 0,0 l/m 0 min 3 min 0 W/m 6,4 km/h (2 Bft) 97,87 %
21.01.2021 20:32 6,3 C 5,0 C 2,3 C 94 % 988,5 hPa 0,2 l/m 0 min 2 min 0 W/m 0,0 km/h (0 Bft) 97,87 %
21.01.2021 20:34 6,3 C 5,0 C 2,3 C 94 % 988,4 hPa 0,0 l/m 0 min 2 min 0 W/m 3,2 km/h (1 Bft) 100,00 %
21.01.2021 20:36 6,3 C 5,0 C 2,3 C 94 % 988,4 hPa 0,0 l/m 0 min 2 min 0 W/m 3,2 km/h (1 Bft) 100,00 %
21.01.2021 20:38 6,3 C 5,0 C 2,8 C 94 % 988,2 hPa 0,0 l/m 0 min 2 min 0 W/m 0,0 km/h (0 Bft) 100,00 %
21.01.2021 20:40 6,3 C 5,0 C 2,8 C 94 % 988,2 hPa 0,0 l/m 0 min 2 min 0 W/m 3,2 km/h (1 Bft) 100,00 %
21.01.2021 20:42 6,3 C 5,0 C 2,8 C 94 % 988,0 hPa 0,2 l/m 0 min 2 min 0 W/m 0,0 km/h (0 Bft) 100,00 %
21.01.2021 20:44 6,3 C 5,0 C 2,8 C 94 % 988,1 hPa 0,0 l/m 0 min 2 min 0 W/m 3,2 km/h (1 Bft) 100,00 %
21.01.2021 20:46 6,3 C 5,0 C 2,8 C 95 % 988,0 hPa 0,0 l/m 0 min 2 min 0 W/m 6,4 km/h (2 Bft) 100,00 %
21.01.2021 20:48 6,3 C 5,0 C 2,8 C 95 % 987,9 hPa 0,0 l/m 0 min 2 min 0 W/m 0,0 km/h (0 Bft) 100,00 %
21.01.2021 20:50 6,3 C 5,0 C 2,8 C 95 % 987,9 hPa 0,0 l/m 0 min 2 min 0 W/m 3,2 km/h (1 Bft) 97,87 %
21.01.2021 20:52 6,3 C 5,0 C 2,8 C 95 % 987,8 hPa 0,0 l/m 0 min 2 min 0 W/m 3,2 km/h (1 Bft) 100,00 %
21.01.2021 20:54 6,3 C 5,0 C 2,8 C 95 % 987,7 hPa 0,0 l/m 0 min 2 min 0 W/m 3,2 km/h (1 Bft) 100,00 %
21.01.2021 20:56 6,3 C 5,0 C 2,8 C 95 % 987,7 hPa 0,2 l/m 0 min 2 min 0 W/m 0,0 km/h (0 Bft) 100,00 %
21.01.2021 20:58 6,3 C 5,0 C 2,8 C 95 % 987,6 hPa 0,0 l/m 0 min 2 min 0 W/m 3,2 km/h (1 Bft) 100,00 %
21.01.2021 21:00 6,3 C 5,0 C 2,8 C 95 % 987,6 hPa 0,0 l/m 0 min 2 min 0 W/m 0,0 km/h (0 Bft) 97,87 %
21.01.2021 21:02 6,3 C 5,0 C 2,8 C 95 % 987,5 hPa 0,0 l/m 0 min 2 min 0 W/m 16,1 km/h (3 Bft) 97,87 %
21.01.2021 21:04 6,4 C 5,0 C 2,8 C 95 % 987,5 hPa 0,0 l/m 0 min 2 min 0 W/m 0,0 km/h (0 Bft) 97,87 %
21.01.2021 21:06 6,4 C 5,0 C 2,8 C 95 % 987,4 hPa 0,2 l/m 0 min 2 min 0 W/m 3,2 km/h (1 Bft) 97,87 %
21.01.2021 21:08 6,4 C 5,0 C 2,8 C 95 % 987,4 hPa 0,0 l/m 0 min 2 min 0 W/m 3,2 km/h (1 Bft) 97,87 %
21.01.2021 21:10 6,4 C 5,0 C 2,8 C 96 % 987,3 hPa 0,0 l/m 0 min 2 min 0 W/m 3,2 km/h (1 Bft) 97,83 %
21.01.2021 21:12 6,4 C 5,0 C 2,8 C 95 % 987,3 hPa 0,0 l/m 0 min 2 min 0 W/m 3,2 km/h (1 Bft) 95,74 %
21.01.2021 21:14 6,4 C 5,0 C 2,8 C 96 % 987,2 hPa 0,0 l/m 0 min 2 min 0 W/m 3,2 km/h (1 Bft) 95,74 %
21.01.2021 21:16 6,4 C 5,6 C 2,8 C 96 % 987,1 hPa 0,0 l/m 0 min 2 min 0 W/m 12,9 km/h (3 Bft) 97,87 %
21.01.2021 21:18 6,4 C 5,6 C 3,4 C 96 % 987,0 hPa 0,0 l/m 0 min 2 min 0 W/m 3,2 km/h (1 Bft) 97,87 %
21.01.2021 21:20 6,4 C 5,6 C 3,4 C 96 % 987,0 hPa 0,2 l/m 0 min 2 min 0 W/m 0,0 km/h (0 Bft) 91,49 %
21.01.2021 21:22 6,4 C 5,6 C 3,4 C 96 % 986,9 hPa 0,0 l/m 0 min 2 min 0 W/m 3,2 km/h (1 Bft) 97,83 %
21.01.2021 21:24 6,4 C 5,6 C 3,4 C 96 % 986,9 hPa 0,0 l/m 0 min 2 min 0 W/m 3,2 km/h (1 Bft) 97,87 %
21.01.2021 21:26 6,5 C 5,6 C 3,4 C 96 % 986,8 hPa 0,0 l/m 0 min 2 min 0 W/m 6,4 km/h (2 Bft) 95,74 %
21.01.2021 21:28 6,5 C 5,6 C 3,4 C 96 % 986,7 hPa 0,0 l/m 0 min 2 min 0 W/m 0,0 km/h (0 Bft) 97,87 %
21.01.2021 21:30 6,5 C 5,6 C 3,4 C 96 % 986,5 hPa 0,0 l/m 0 min 2 min 0 W/m 6,4 km/h (2 Bft) 95,74 %
21.01.2021 21:32 6,5 C 5,6 C 3,4 C 96 % 986,5 hPa 0,0 l/m 0 min 2 min 0 W/m 3,2 km/h (1 Bft) 91,49 %
21.01.2021 21:34 6,5 C 5,6 C 3,4 C 96 % 986,5 hPa 0,2 l/m 0 min 0 min 0 W/m 3,2 km/h (1 Bft) 95,65 %
21.01.2021 21:36 6,5 C 5,6 C 3,4 C 96 % 986,4 hPa 0,0 l/m 0 min 0 min 0 W/m 0,0 km/h (0 Bft) 95,74 %
21.01.2021 21:38 6,5 C 5,6 C 3,4 C 96 % 986,3 hPa 0,0 l/m 0 min 0 min 0 W/m 3,2 km/h (1 Bft) 93,62 %
21.01.2021 21:40 6,6 C 5,6 C 3,4 C 96 % 986,2 hPa 0,0 l/m 0 min 0 min 0 W/m 0,0 km/h (0 Bft) 95,74 %
21.01.2021 21:42 6,6 C 5,6 C 3,4 C 96 % 986,0 hPa 0,0 l/m 0 min 0 min 0 W/m 3,2 km/h (1 Bft) 93,62 %
21.01.2021 21:44 6,6 C 5,6 C 3,4 C 96 % 986,0 hPa 0,0 l/m 0 min 0 min 0 W/m 3,2 km/h (1 Bft) 93,62 %
21.01.2021 21:46 6,6 C 5,6 C 3,4 C 96 % 986,0 hPa 0,0 l/m 0 min 0 min 0 W/m 9,7 km/h (2 Bft) 93,48 %
21.01.2021 21:48 6,7 C 5,6 C 3,4 C 96 % 985,9 hPa 0,0 l/m 0 min 0 min 0 W/m 3,2 km/h (1 Bft) 91,49 %
21.01.2021 21:50 6,7 C 5,6 C 3,4 C 96 % 985,9 hPa 0,0 l/m 0 min 0 min 0 W/m 0,0 km/h (0 Bft) 91,49 %
21.01.2021 21:52 6,7 C 5,6 C 3,4 C 96 % 985,9 hPa 0,0 l/m 0 min 0 min 0 W/m 3,2 km/h (1 Bft) 95,74 %
21.01.2021 21:54 6,8 C 6,1 C 3,9 C 96 % 985,8 hPa 0,0 l/m 0 min 0 min 0 W/m 3,2 km/h (1 Bft) 93,62 %
21.01.2021 21:56 6,8 C 6,1 C 3,9 C 96 % 985,8 hPa 0,0 l/m 0 min 0 min 0 W/m 3,2 km/h (1 Bft) 91,49 %
21.01.2021 21:58 6,8 C 6,1 C 3,9 C 96 % 985,8 hPa 0,0 l/m 0 min 0 min 0 W/m 16,1 km/h (3 Bft) 93,48 %
21.01.2021 22:00 6,8 C 6,1 C 3,9 C 96 % 985,7 hPa 0,0 l/m 0 min 0 min 0 W/m 3,2 km/h (1 Bft) 93,62 %
21.01.2021 22:03 6,9 C 6,1 C 3,9 C 96 % 985,7 hPa 0,0 l/m 0 min 0 min 0 W/m 6,4 km/h (2 Bft) 90,00 %
21.01.2021 22:04 6,9 C 6,1 C 3,9 C 96 % 985,7 hPa 0,0 l/m 0 min 0 min 0 W/m 3,2 km/h (1 Bft) 100,00 %
21.01.2021 22:06 6,9 C 6,1 C 3,9 C 96 % 985,6 hPa 0,0 l/m 0 min 0 min 0 W/m 12,9 km/h (3 Bft) 93,62 %
21.01.2021 22:08 7,0 C 6,1 C 3,9 C 96 % 985,5 hPa 0,0 l/m 0 min 0 min 0 W/m 3,2 km/h (1 Bft) 91,49 %
21.01.2021 22:10 7,0 C 6,1 C 3,9 C 96 % 985,5 hPa 0,0 l/m 0 min 2 min 0 W/m 3,2 km/h (1 Bft) 91,30 %
21.01.2021 22:12 7,0 C 6,1 C 3,9 C 96 % 985,5 hPa 0,0 l/m 0 min 2 min 0 W/m 3,2 km/h (1 Bft) 93,62 %
21.01.2021 22:14 7,0 C 6,1 C 3,9 C 96 % 985,5 hPa 0,0 l/m 0 min 2 min 0 W/m 3,2 km/h (1 Bft) 95,74 %
21.01.2021 22:16 7,1 C 6,1 C 3,9 C 96 % 985,4 hPa 0,0 l/m 0 min 2 min 0 W/m 0,0 km/h (0 Bft) 93,62 %
21.01.2021 22:18 7,1 C 6,1 C 3,9 C 96 % 985,3 hPa 0,0 l/m 0 min 2 min 0 W/m 0,0 km/h (0 Bft) 95,74 %
21.01.2021 22:20 7,1 C 6,1 C 3,9 C 96 % 985,3 hPa 0,0 l/m 0 min 2 min 0 W/m 3,2 km/h (1 Bft) 97,83 %
21.01.2021 22:22 7,1 C 6,1 C 3,9 C 96 % 985,3 hPa 0,0 l/m 0 min 2 min 0 W/m 3,2 km/h (1 Bft) 97,87 %
21.01.2021 22:24 7,2 C 6,1 C 3,9 C 96 % 985,2 hPa 0,0 l/m 0 min 2 min 0 W/m 3,2 km/h (1 Bft) 95,74 %
21.01.2021 22:26 7,3 C 6,1 C 4,5 C 96 % 985,2 hPa 0,0 l/m 0 min 2 min 0 W/m 16,1 km/h (3 Bft) 93,62 %
21.01.2021 22:28 7,3 C 6,7 C 4,5 C 96 % 985,1 hPa 0,0 l/m 0 min 2 min 0 W/m 6,4 km/h (2 Bft) 97,87 %
21.01.2021 22:30 7,4 C 6,7 C 4,5 C 96 % 985,1 hPa 0,0 l/m 0 min 2 min 0 W/m 0,0 km/h (0 Bft) 100,00 %
21.01.2021 22:32 7,4 C 6,7 C 4,5 C 96 % 985,1 hPa 0,0 l/m 0 min 2 min 0 W/m 0,0 km/h (0 Bft) 95,65 %
21.01.2021 22:34 7,5 C 6,7 C 4,5 C 96 % 985,1 hPa 0,0 l/m 0 min 0 min 0 W/m 0,0 km/h (0 Bft) 100,00 %
21.01.2021 22:36 7,5 C 6,7 C 4,5 C 96 % 985,0 hPa 0,0 l/m 0 min 0 min 0 W/m 0,0 km/h (0 Bft) 95,74 %
21.01.2021 22:38 7,6 C 6,7 C 4,5 C 96 % 985,1 hPa 0,0 l/m 0 min 2 min 0 W/m 0,0 km/h (0 Bft) 100,00 %
21.01.2021 22:40 7,7 C 6,7 C 5,0 C 96 % 985,0 hPa 0,0 l/m 0 min 0 min 0 W/m 0,0 km/h (0 Bft) 100,00 %
21.01.2021 22:42 7,7 C 7,2 C 5,0 C 96 % 985,0 hPa 0,0 l/m 0 min 0 min 0 W/m 3,2 km/h (1 Bft) 100,00 %
21.01.2021 22:44 7,8 C 7,2 C 5,0 C 96 % 985,0 hPa 0,0 l/m 0 min 0 min 0 W/m 0,0 km/h (0 Bft) 97,83 %
21.01.2021 22:46 7,9 C 7,2 C 5,0 C 96 % 985,1 hPa 0,0 l/m 0 min 2 min 0 W/m 6,4 km/h (2 Bft) 97,87 %
21.01.2021 22:48 7,9 C 7,2 C 5,0 C 96 % 985,0 hPa 0,0 l/m 0 min 0 min 0 W/m 12,9 km/h (3 Bft) 100,00 %
21.01.2021 22:50 7,9 C 7,8 C 5,0 C 96 % 985,1 hPa 0,0 l/m 0 min 2 min 0 W/m 35,4 km/h (5 Bft) 100,00 %
21.01.2021 22:52 8,0 C 7,8 C 5,0 C 96 % 985,0 hPa 0,0 l/m 0 min 2 min 0 W/m 6,4 km/h (2 Bft) 76,60 %
21.01.2021 22:54 8,1 C 7,8 C 5,6 C 96 % 985,0 hPa 0,0 l/m 0 min 2 min 0 W/m 0,0 km/h (0 Bft) 67,57 %
21.01.2021 22:56 8,3 C 7,8 C 5,6 C 96 % 984,9 hPa 0,0 l/m 0 min 2 min 0 W/m 32,2 km/h (5 Bft) 100,00 %
21.01.2021 22:58 8,4 C 8,3 C 5,6 C 96 % 985,0 hPa 0,0 l/m 0 min 2 min 0 W/m 41,8 km/h (6 Bft) 100,00 %
21.01.2021 23:00 8,6 C 8,3 C 5,6 C 95 % 985,0 hPa 0,0 l/m 0 min 2 min 0 W/m 35,4 km/h (5 Bft) 100,00 %
21.01.2021 23:02 8,7 C 8,3 C 6,2 C 95 % 985,1 hPa 0,0 l/m 0 min 2 min 0 W/m 22,5 km/h (4 Bft) 100,00 %
21.01.2021 23:04 8,9 C 8,3 C 6,2 C 95 % 985,0 hPa 0,0 l/m 0 min 2 min 0 W/m 0,0 km/h (0 Bft) 100,00 %
21.01.2021 23:06 9,0 C 8,3 C 6,2 C 94 % 984,9 hPa 0,0 l/m 0 min 2 min 0 W/m 6,4 km/h (2 Bft) 100,00 %
21.01.2021 23:08 9,1 C 8,3 C 6,2 C 94 % 984,9 hPa 0,0 l/m 0 min 2 min 0 W/m 0,0 km/h (0 Bft) 100,00 %
21.01.2021 23:10 9,3 C 8,3 C 6,2 C 93 % 984,8 hPa 0,0 l/m 0 min 2 min 0 W/m 9,7 km/h (2 Bft) 100,00 %
21.01.2021 23:12 9,4 C 8,3 C 6,2 C 92 % 985,0 hPa 0,0 l/m 0 min 2 min 0 W/m 51,5 km/h (7 Bft) 100,00 %
21.01.2021 23:14 9,5 C 8,3 C 6,2 C 91 % 985,1 hPa 0,0 l/m 0 min 2 min 0 W/m 0,0 km/h (0 Bft) 100,00 %
21.01.2021 23:16 9,6 C 7,8 C 6,2 C 91 % 985,0 hPa 0,0 l/m 0 min 2 min 0 W/m 19,3 km/h (3 Bft) 100,00 %
21.01.2021 23:18 9,7 C 7,8 C 6,2 C 90 % 985,1 hPa 0,0 l/m 0 min 2 min 0 W/m 12,9 km/h (3 Bft) 100,00 %
21.01.2021 23:20 9,8 C 7,8 C 5,6 C 90 % 985,0 hPa 0,2 l/m 0 min 2 min 0 W/m 35,4 km/h (5 Bft) 97,83 %
21.01.2021 23:22 9,8 C 7,8 C 5,6 C 90 % 985,0 hPa 0,0 l/m 0 min 2 min 0 W/m 29,0 km/h (5 Bft) 100,00 %
21.01.2021 23:24 9,9 C 7,8 C 5,6 C 90 % 985,0 hPa 0,0 l/m 0 min 2 min 0 W/m 3,2 km/h (1 Bft) 100,00 %
21.01.2021 23:26 9,8 C 7,8 C 5,6 C 90 % 985,0 hPa 0,0 l/m 0 min 2 min 0 W/m 12,9 km/h (3 Bft) 100,00 %
21.01.2021 23:28 9,8 C 7,8 C 6,2 C 90 % 985,0 hPa 0,0 l/m 0 min 0 min 0 W/m 6,4 km/h (2 Bft) 100,00 %
21.01.2021 23:30 9,8 C 7,8 C 6,2 C 90 % 985,0 hPa 0,0 l/m 0 min 0 min 0 W/m 0,0 km/h (0 Bft) 100,00 %
21.01.2021 23:32 9,8 C 7,8 C 6,2 C 90 % 985,0 hPa 0,0 l/m 0 min 2 min 0 W/m 0,0 km/h (0 Bft) 100,00 %
21.01.2021 23:34 9,8 C 8,3 C 6,2 C 90 % 985,2 hPa 0,0 l/m 0 min 2 min 0 W/m 3,2 km/h (1 Bft) 100,00 %
21.01.2021 23:36 9,8 C 8,3 C 6,2 C 89 % 985,1 hPa 0,0 l/m 0 min 2 min 0 W/m 48,3 km/h (6 Bft) 100,00 %
21.01.2021 23:38 9,8 C 8,3 C 6,2 C 89 % 985,0 hPa 0,0 l/m 0 min 2 min 0 W/m 35,4 km/h (5 Bft) 97,87 %
21.01.2021 23:40 9,9 C 8,3 C 6,2 C 89 % 985,3 hPa 0,0 l/m 0 min 0 min 0 W/m 16,1 km/h (3 Bft) 100,00 %
21.01.2021 23:42 9,9 C 8,3 C 6,2 C 89 % 985,0 hPa 0,0 l/m 0 min 0 min 0 W/m 6,4 km/h (2 Bft) 100,00 %
21.01.2021 23:44 9,9 C 8,3 C 6,2 C 89 % 985,0 hPa 0,0 l/m 0 min 0 min 0 W/m 0,0 km/h (0 Bft) 100,00 %
21.01.2021 23:46 9,9 C 8,3 C 6,2 C 89 % 985,0 hPa 0,0 l/m 0 min 0 min 0 W/m 41,8 km/h (6 Bft) 100,00 %
21.01.2021 23:48 9,9 C 8,3 C 6,2 C 89 % 984,9 hPa 0,0 l/m 0 min 0 min 0 W/m 3,2 km/h (1 Bft) 97,87 %
21.01.2021 23:50 9,9 C 8,3 C 6,2 C 89 % 985,0 hPa 0,0 l/m 0 min 0 min 0 W/m 3,2 km/h (1 Bft) 100,00 %
21.01.2021 23:52 9,9 C 8,3 C 6,2 C 88 % 985,0 hPa 0,0 l/m 0 min 0 min 0 W/m 0,0 km/h (0 Bft) 100,00 %
21.01.2021 23:54 9,9 C 8,3 C 6,2 C 88 % 985,0 hPa 0,0 l/m 0 min 0 min 0 W/m 19,3 km/h (3 Bft) 100,00 %
21.01.2021 23:56 9,9 C 8,3 C 6,2 C 88 % 985,0 hPa 0,0 l/m 0 min 0 min 0 W/m 6,4 km/h (2 Bft) 100,00 %
21.01.2021 23:58 10,0 C 8,3 C 6,2 C 88 % 985,0 hPa 0,0 l/m 0 min 0 min 0 W/m 19,3 km/h (3 Bft) 95,74 %
_ Min-Zeit 07:46 06:28 06:24 04:18 23:10 - - - - 00:02 00:02
Minimum _ 5,6 C 4,4 C 1,7 C 71 % 984,8 hPa - - - - 0,0 km/h (0 Bft) 12,50 %
_ Max-Zeit 04:24 04:18 04:06 21:10 11:44 06:12 15:08 06:08 13:20 23:12 00:28
Maximum _ 12,0 C 11,7 C 7,8 C 96 % 995,0 hPa 0,8 l/m 2 min 4 min 177 W/m 51,5 km/h
SO (7 Bft)
100,00 %
Durchschnitt _ 8,3 C 7,5 C 4,5 C 83 % 991,1 hPa #6,4 l/m #30 min. #6:08 h 77 W/m 10,5 km/h (2 Bft) 97,37 %
© 2021 W. Hausmann